W4HSV Weather Reports


time (UTC)temp
C
wind
direction
speed
KPH
gust
KPH
rain 1hr
cm
rain 24hr
cm
rain mn
cm
humidity
%
barometer
mb
20260904230533 31 344 8.0 17.7 0.00 0.00 0.00 66 1014.1
20260904230419 31 331 9.7 19.3 0.00 0.00 0.00 66 1014.1
20260904230327 31 351 11.3 22.5 0.00 0.00 0.00 66 1014.0
20260904230300 31 355 11.3 22.5 0.00 0.00 0.00 65 1014.0
20260904230034 31 355 8.0 22.5 0.00 0.00 0.00 65 1014.1
20260904225922 31 322 9.7 22.5 0.00 0.00 0.00 65 1014.1
20260904225828 31 312 12.9 22.5 0.00 0.00 0.00 65 1014.0
20260904225736 31 328 12.9 22.5 0.00 0.00 0.00 64 1014.0
20260904225628 31 338 16.1 22.5 0.00 0.00 0.00 64 1013.9
20260904225555 31 318 16.1 22.5 0.00 0.00 0.00 64 1013.9
20260904225421 32 324 12.9 16.1 0.00 0.00 0.00 64 1013.8
20260904225328 32 331 11.3 16.1 0.00 0.00 0.00 64 1013.8
20260904225234 32 331 11.3 14.5 0.00 0.00 0.00 64 1013.7
20260904225123 32 344 11.3 16.1 0.00 0.00 0.00 64 1013.8
20260904225033 32 318 9.7 19.3 0.00 0.00 0.00 64 1013.8
20260904224920 32 5 6.4 22.5 0.00 0.00 0.00 64 1013.7
20260904224827 32 10 4.8 22.5 0.00 0.00 0.00 64 1013.7
20260904224758 32 355 4.8 22.5 0.00 0.00 0.00 63 1013.7
20260904224532 32 313 8.0 22.5 0.00 0.00 0.00 63 1013.6
20260904224423 32 346 9.7 22.5 0.00 0.00 0.00 62 1013.6
20260904224350 32 317 12.9 22.5 0.00 0.00 0.00 62 1013.6
20260904224236 33 328 16.1 22.5 0.00 0.00 0.00 62 1013.5
20260904224122 33 319 14.5 22.5 0.00 0.00 0.00 62 1013.6
20260904224028 33 350 11.3 20.9 0.00 0.00 0.00 62 1013.6
20260904223920 33 349 9.7 20.9 0.00 0.00 0.00 62 1013.7
20260904223827 33 338 11.3 20.9 0.00 0.00 0.00 62 1013.6
20260904223734 33 355 14.5 20.9 0.00 0.00 0.00 62 1013.7
20260904223621 33 344 12.9 20.9 0.00 0.00 0.00 62 1013.7
20260904223528 33 355 11.3 20.9 0.00 0.00 0.00 61 1013.7
20260904223434 33 355 8.0 24.1 0.00 0.00 0.00 61 1013.7
20260904223325 33 311 9.7 25.7 0.00 0.00 0.00 60 1013.7
20260904223256 33 350 9.7 25.7 0.00 0.00 0.00 60 1013.7
20260904223031 34 321 11.3 25.7 0.00 0.00 0.00 60 1013.7
20260904222919 34 343 12.9 25.7 0.00 0.00 0.00 59 1013.6
20260904222830 34 332 14.5 25.7 0.00 0.00 0.00 59 1013.7
20260904222736 34 328 16.1 25.7 0.00 0.00 0.00 58 1013.7
20260904222624 35 333 17.7 25.7 0.00 0.00 0.00 58 1013.7
20260904222530 35 329 17.7 25.7 0.00 0.00 0.00 59 1013.6
20260904222437 35 321 19.3 25.7 0.00 0.00 0.00 58 1013.6
20260904222343 35 301 11.3 24.1 0.00 0.00 0.00 59 1013.6
20260904222228 35 306 11.3 16.1 0.00 0.00 0.00 58 1013.7
20260904222119 35 329 11.3 16.1 0.00 0.00 0.00 59 1013.7
20260904222024 35 328 9.7 16.1 0.00 0.00 0.00 59 1013.6
20260904221952 35 323 8.0 16.1 0.00 0.00 0.00 59 1013.5
20260904221836 35 321 6.4 12.9 0.00 0.00 0.00 59 1013.6
20260904221807 35 327 6.4 12.9 0.00 0.00 0.00 58 1013.6
20260904221522 35 319 6.4 12.9 0.00 0.00 0.00 57 1013.5
20260904221430 35 247 6.4 12.9 0.00 0.00 0.00 58 1013.5
20260904221337 35 298 6.4 12.9 0.00 0.00 0.00 57 1013.5
20260904221226 35 307 6.4 14.5 0.00 0.00 0.00 58 1013.6
20260904221152 35 317 6.4 14.5 0.00 0.00 0.00 57 1013.6
20260904221019 35 302 6.4 14.5 0.00 0.00 0.00 58 1013.5
20260904220930 35 277 6.4 14.5 0.00 0.00 0.00 58 1013.7
20260904220857 35 288 6.4 16.1 0.00 0.00 0.00 58 1013.7
20260904220721 35 276 6.4 16.1 0.00 0.00 0.00 59 1013.7
20260904220629 35 258 8.0 16.1 0.00 0.00 0.00 59 1013.6
20260904220536 35 290 8.0 16.1 0.00 0.00 0.00 59 1013.5
20260904220422 34 272 8.0 16.1 0.00 0.00 0.00 60 1013.5
20260904220334 34 304 9.7 16.1 0.00 0.00 0.00 61 1013.5
20260904220303 34 297 9.7 16.1 0.00 0.00 0.00 61 1013.5
20260904220036 34 279 9.7 16.1 0.00 0.00 0.00 61 1013.4
20260904215922 34 298 6.4 14.5 0.00 0.00 0.00 61 1013.5
20260904215832 34 217 6.4 14.5 0.00 0.00 0.00 61 1013.5
20260904215719 34 287 8.0 14.5 0.00 0.00 0.00 61 1013.4
20260904215626 34 298 9.7 14.5 0.00 0.00 0.00 61 1013.4
20260904215553 34 250 8.0 14.5 0.00 0.00 0.00 61 1013.5
20260904215420 34 284 6.4 14.5 0.00 0.00 0.00 61 1013.4
20260904215326 34 96 6.4 12.9 0.00 0.00 0.00 60 1013.5
20260904215254 34 263 8.0 14.5 0.00 0.00 0.00 61 1013.4
20260904215124 34 229 4.8 14.5 0.00 0.00 0.00 61 1013.5
20260904215051 33 283 3.2 14.5 0.00 0.00 0.00 62 1013.5
20260904214958 33 248 3.2 14.5 0.00 0.00 0.00 61 1013.5
20260904214843 33 227 4.8 14.5 0.00 0.00 0.00 61 1013.5
20260904214814 33 251 6.4 14.5 0.00 0.00 0.00 61 1013.5
20260904214529 33 240 9.7 14.5 0.00 0.00 0.00 62 1013.3
20260904214436 33 260 6.4 12.9 0.00 0.00 0.00 62 1013.3
20260904214343 33 308 6.4 11.3 0.00 0.00 0.00 61 1013.3
20260904214228 33 238 6.4 11.3 0.00 0.00 0.00 61 1013.3
20260904214135 33 248 4.8 9.7 0.00 0.00 0.00 60 1013.4
20260904214023 33 275 4.8 8.0 0.00 0.00 0.00 61 1013.4
20260904213950 33 282 4.8 8.0 0.00 0.00 0.00 62 1013.5
20260904213818 33 265 4.8 12.9 0.00 0.00 0.00 62 1013.4
20260904213745 33 267 4.8 12.9 0.00 0.00 0.00 63 1013.5
20260904213652 33 261 4.8 12.9 0.00 0.00 0.00 63 1013.5
20260904213517 33 260 4.8 12.9 0.00 0.00 0.00 61 1013.5
20260904213424 33 254 4.8 12.9 0.00 0.00 0.00 63 1013.4
20260904213330 33 298 4.8 12.9 0.00 0.00 0.00 61 1013.4
20260904213303 33 250 6.4 12.9 0.00 0.00 0.00 61 1013.4
20260904213036 33 194 8.0 12.9 0.00 0.00 0.00 62 1013.3
20260904212922 33 167 6.4 11.3 0.00 0.00 0.00 62 1013.4
20260904212849 33 220 6.4 11.3 0.00 0.00 0.00 62 1013.3
20260904212734 33 197 6.4 11.3 0.00 0.00 0.00 61 1013.3
20260904212645 33 218 6.4 9.7 0.00 0.00 0.00 60 1013.3
20260904212532 33 186 4.8 11.3 0.00 0.00 0.00 60 1013.4
20260904212418 33 196 4.8 11.3 0.00 0.00 0.00 59 1013.4
20260904212346 33 226 3.2 11.3 0.00 0.00 0.00 58 1013.4
20260904212232 33 174 3.2 11.3 0.00 0.00 0.00 58 1013.4
20260904212118 33 154 3.2 11.3 0.00 0.00 0.00 57 1013.4
20260904212029 33 133 3.2 11.3 0.00 0.00 0.00 57 1013.4
20260904211917 33 121 3.2 11.3 0.00 0.00 0.00 58 1013.4
20260904211844 33 139 3.2 12.9 0.00 0.00 0.00 58 1013.5
20260904211753 33 126 3.2 12.9 0.00 0.00 0.00 58 1013.5
20260904211548 33 207 4.8 12.9 0.00 0.00 0.00 58 1013.3
20260904211419 33 182 4.8 12.9 0.00 0.00 0.00 59 1013.3
20260904211324 33 180 4.8 12.9 0.00 0.00 0.00 60 1013.2
20260904211231 33 155 6.4 12.9 0.00 0.00 0.00 58 1013.2
20260904211118 33 138 8.0 12.9 0.00 0.00 0.00 60 1013.3
20260904211024 33 184 8.0 12.9 0.00 0.00 0.00 61 1013.3
20260904210951 33 119 8.0 12.9 0.00 0.00 0.00 60 1013.3
20260904210820 33 126 8.0 12.9 0.00 0.00 0.00 60 1013.2
20260904210726 33 121 8.0 12.9 0.00 0.00 0.00 60 1013.2
20260904210634 33 119 8.0 12.9 0.00 0.00 0.00 60 1013.2
20260904210542 33 123 8.0 14.5 0.00 0.00 0.00 60 1013.1
20260904210429 33 109 6.4 14.5 0.00 0.00 0.00 59 1013.2
20260904210356 33 133 4.8 14.5 0.00 0.00 0.00 59 1013.2
20260904210329 33 136 4.8 14.5 0.00 0.00 0.00 60 1013.2
20260904210023 33 59 6.4 14.5 0.00 0.00 0.00 60 1013.2
20260904205928 33 185 6.4 16.1 0.00 0.00 0.00 59 1013.4
20260904205835 33 139 9.7 16.1 0.00 0.00 0.00 59 1013.4
20260904205721 33 153 9.7 16.1 0.00 0.00 0.00 59 1013.3
20260904205633 33 140 8.0 16.1 0.00 0.00 0.00 59 1013.2
20260904205539 33 115 6.4 16.1 0.00 0.00 0.00 59 1013.1
20260904205425 34 140 6.4 16.1 0.00 0.00 0.00 59 1013.1
20260904205331 34 137 8.0 17.7 0.00 0.00 0.00 59 1013.0
20260904205238 34 71 11.3 17.7 0.00 0.00 0.00 58 1013.0
20260904205124 34 135 12.9 17.7 0.00 0.00 0.00 58 1013.0
20260904205030 34 105 11.3 17.7 0.00 0.00 0.00 58 1013.0
20260904204920 34 131 9.7 19.3 0.00 0.00 0.00 59 1013.0
20260904204827 34 132 11.3 22.5 0.00 0.00 0.00 58 1013.0
20260904204756 35 139 11.3 22.5 0.00 0.00 0.00 57 1013.0
20260904204527 35 106 9.7 22.5 0.00 0.00 0.00 59 1013.1
20260904204419 35 101 9.7 22.5 0.00 0.00 0.00 57 1013.1
20260904204326 35 113 11.3 22.5 0.00 0.00 0.00 57 1013.1
20260904204233 35 121 11.3 22.5 0.00 0.00 0.00 60 1013.2
20260904204120 35 122 14.5 22.5 0.00 0.00 0.00 56 1013.3
20260904204028 35 111 14.5 22.5 0.00 0.00 0.00 56 1013.3
20260904203918 35 90 12.9 20.9 0.00 0.00 0.00 57 1013.3
20260904203824 35 94 11.3 22.5 0.00 0.00 0.00 57 1013.3
20260904203730 35 132 11.3 22.5 0.00 0.00 0.00 58 1013.3
20260904203636 35 163 12.9 22.5 0.00 0.00 0.00 57 1013.4
20260904203522 35 109 14.5 22.5 0.00 0.00 0.00 56 1013.3
20260904203451 35 113 12.9 22.5 0.00 0.00 0.00 56 1013.4
20260904203417 35 121 14.5 22.5 0.00 0.00 0.00 56 1013.4
20260904203327 36 121 14.5 22.5 0.00 0.00 0.00 56 1013.4
20260904203019 36 109 12.9 22.5 0.00 0.00 0.00 56 1013.4
20260904202926 36 157 14.5 20.9 0.00 0.00 0.00 55 1013.4
20260904202833 36 115 14.5 20.9 0.00 0.00 0.00 55 1013.4
20260904202719 36 94 11.3 17.7 0.00 0.00 0.00 54 1013.5
20260904202629 36 21 9.7 16.1 0.00 0.00 0.00 53 1013.4
20260904202517 36 49 8.0 16.1 0.00 0.00 0.00 54 1013.5
20260904202423 36 142 6.4 16.1 0.00 0.00 0.00 55 1013.5
20260904202350 36 67 6.4 16.1 0.00 0.00 0.00 53 1013.5
20260904202237 36 148 8.0 16.1 0.00 0.00 0.00 53 1013.6
20260904202143 36 102 6.4 16.1 0.00 0.00 0.00 52 1013.6
20260904202034 36 93 6.4 16.1 0.00 0.00 0.00 52 1013.5
20260904201919 36 59 9.7 16.1 0.00 0.00 0.00 52 1013.5
20260904201827 36 126 9.7 16.1 0.00 0.00 0.00 51 1013.6
20260904201758 36 126 8.0 16.1 0.00 0.00 0.00 51 1013.6
20260904201550 36 25 4.8 14.5 0.00 0.00 0.00 52 1013.6
20260904201419 36 85 4.8 14.5 0.00 0.00 0.00 52 1013.7
20260904201328 36 5 6.4 14.5 0.00 0.00 0.00 51 1013.7
20260904201234 36 63 8.0 14.5 0.00 0.00 0.00 52 1013.8
20260904201120 36 79 9.7 14.5 0.00 0.00 0.00 52 1013.7
20260904201029 36 69 8.0 14.5 0.00 0.00 0.00 53 1013.7
20260904200920 36 125 6.4 14.5 0.00 0.00 0.00 50 1013.8
20260904200827 36 136 6.4 14.5 0.00 0.00 0.00 51 1013.8
20260904200735 36 115 8.0 14.5 0.00 0.00 0.00 52 1013.7
20260904200621 36 83 9.7 14.5 0.00 0.00 0.00 52 1013.8
20260904200528 36 84 8.0 14.5 0.00 0.00 0.00 54 1013.7
20260904200435 36 111 4.8 11.3 0.00 0.00 0.00 52 1013.8
20260904200324 36 155 4.8 11.3 0.00 0.00 0.00 52 1013.8
20260904200255 36 146 3.2 11.3 0.00 0.00 0.00 54 1013.8
20260904200049 36 116 1.6 11.3 0.00 0.00 0.00 53 1013.9
20260904195933 36 61 3.2 11.3 0.00 0.00 0.00 53 1013.9
20260904195842 36 61 4.8 11.3 0.00 0.00 0.00 52 1013.9
20260904195731 36 85 6.4 11.3 0.00 0.00 0.00 51 1013.9
20260904195618 36 126 4.8 11.3 0.00 0.00 0.00 52 1013.9
20260904195546 36 125 6.4 11.3 0.00 0.00 0.00 51 1013.9
20260904195431 36 48 8.0 11.3 0.00 0.00 0.00 51 1014.0
20260904195319 36 57 8.0 16.1 0.00 0.00 0.00 51 1014.0
20260904195226 36 90 6.4 16.1 0.00 0.00 0.00 51 1014.0
20260904195132 36 23 6.4 16.1 0.00 0.00 0.00 52 1014.0
20260904195042 36 101 4.8 16.1 0.00 0.00 0.00 52 1014.1
20260904194927 36 157 6.4 16.1 0.00 0.00 0.00 53 1014.1
20260904194855 36 121 6.4 16.1 0.00 0.00 0.00 53 1014.1
20260904194826 36 84 9.7 16.1 0.00 0.00 0.00 52 1014.0
20260904194518 36 75 8.0 14.5 0.00 0.00 0.00 53 1014.2
20260904194450 36 51 6.4 14.5 0.00 0.00 0.00 52 1014.2
20260904194336 36 82 4.8 14.5 0.00 0.00 0.00 52 1014.1
20260904194222 36 63 6.4 14.5 0.00 0.00 0.00 52 1014.2
20260904194130 36 67 6.4 14.5 0.00 0.00 0.00 52 1014.2
20260904194018 36 113 4.8 14.5 0.00 0.00 0.00 54 1014.3
20260904193947 36 97 4.8 14.5 0.00 0.00 0.00 52 1014.3
20260904193836 36 53 4.8 14.5 0.00 0.00 0.00 53 1014.3
20260904193724 36 31 4.8 14.5 0.00 0.00 0.00 53 1014.2
20260904193631 36 42 8.0 14.5 0.00 0.00 0.00 54 1014.3
20260904193517 36 65 9.7 14.5 0.00 0.00 0.00 53 1014.3
20260904193425 36 138 8.0 14.5 0.00 0.00 0.00 56 1014.3
20260904193333 36 130 6.4 14.5 0.00 0.00 0.00 54 1014.2
20260904193305 36 121 6.4 12.9 0.00 0.00 0.00 51 1014.2
20260904193018 36 198 4.8 11.3 0.00 0.00 0.00 50 1014.2
20260904192926 36 177 6.4 11.3 0.00 0.00 0.00 51 1014.3
20260904192832 36 144 3.2 11.3 0.00 0.00 0.00 50 1014.3
20260904192742 36 251 3.2 11.3 0.00 0.00 0.00 50 1014.4
20260904192629 36 184 4.8 11.3 0.00 0.00 0.00 50 1014.4
20260904192536 36 158 6.4 11.3 0.00 0.00 0.00 51 1014.3
20260904192425 36 195 4.8 9.7 0.00 0.00 0.00 55 1014.3
20260904192332 36 154 3.2 8.0 0.00 0.00 0.00 54 1014.4
20260904192221 36 150 3.2 8.0 0.00 0.00 0.00 54 1014.4
20260904192131 36 194 3.2 8.0 0.00 0.00 0.00 52 1014.3
20260904192039 36 200 1.6 6.4 0.00 0.00 0.00 51 1014.4
20260904191923 36 78 1.6 12.9 0.00 0.00 0.00 51 1014.4
20260904191831 36 105 3.2 12.9 0.00 0.00 0.00 52 1014.3
20260904191800 36 105 3.2 12.9 0.00 0.00 0.00 52 1014.3
20260904191518 36 360 3.2 12.9 0.00 0.00 0.00 53 1014.5
20260904191426 36 360 3.2 12.9 0.00 0.00 0.00 53 1014.6
20260904191333 36 14 4.8 12.9 0.00 0.00 0.00 53 1014.5
20260904191221 36 327 6.4 12.9 0.00 0.00 0.00 53 1014.6
20260904191127 36 29 6.4 12.9 0.00 0.00 0.00 55 1014.6
20260904191054 36 36 6.4 12.9 0.00 0.00 0.00 55 1014.6
20260904190922 36 5 6.4 12.9 0.00 0.00 0.00 53 1014.6
20260904190829 36 39 8.0 14.5 0.00 0.00 0.00 54 1014.7
20260904190736 36 9 8.0 14.5 0.00 0.00 0.00 54 1014.7
20260904190623 36 36 8.0 14.5 0.00 0.00 0.00 53 1014.7
20260904190530 36 57 8.0 14.5 0.00 0.00 0.00 53 1014.8
20260904190421 36 90 8.0 14.5 0.00 0.00 0.00 53 1014.8
20260904190330 36 26 6.4 14.5 0.00 0.00 0.00 53 1014.8
20260904190300 36 67 6.4 14.5 0.00 0.00 0.00 53 1014.8
20260904190034 36 48 6.4 14.5 0.00 0.00 0.00 55 1014.8
20260904185927 36 97 6.4 11.3 0.00 0.00 0.00 54 1014.8
20260904185832 36 76 6.4 11.3 0.00 0.00 0.00 54 1014.8
20260904185646 36 157 6.4 11.3 0.00 0.00 0.00 52 1014.8
20260904185533 36 134 4.8 11.3 0.00 0.00 0.00 51 1014.9
20260904185418 37 150 3.2 11.3 0.00 0.00 0.00 51 1014.9
20260904185329 37 127 4.8 11.3 0.00 0.00 0.00 52 1014.9
20260904185235 37 75 4.8 11.3 0.00 0.00 0.00 52 1015.0
20260904185122 37 118 4.8 12.9 0.00 0.00 0.00 52 1015.0
20260904185049 37 355 4.8 12.9 0.00 0.00 0.00 53 1015.0
20260904184934 37 322 6.4 12.9 0.00 0.00 0.00 53 1015.0
20260904184822 37 301 4.8 12.9 0.00 0.00 0.00 54 1015.0
20260904184756 37 341 4.8 12.9 0.00 0.00 0.00 54 1015.0
20260904184528 37 19 6.4 12.9 0.00 0.00 0.00 53 1015.1
20260904184437 37 32 8.0 12.9 0.00 0.00 0.00 54 1015.1
20260904184322 37 21 8.0 12.9 0.00 0.00 0.00 54 1015.2
20260904184228 37 34 6.4 12.9 0.00 0.00 0.00 54 1015.2
20260904184120 37 11 6.4 12.9 0.00 0.00 0.00 54 1015.2
20260904184028 37 35 8.0 12.9 0.00 0.00 0.00 54 1015.2
20260904183934 37 22 8.0 12.9 0.00 0.00 0.00 55 1015.2
20260904183820 36 355 6.4 12.9 0.00 0.00 0.00 54 1015.2
20260904183727 36 92 8.0 12.9 0.00 0.00 0.00 56 1015.3
20260904183638 36 42 8.0 12.9 0.00 0.00 0.00 55 1015.2
20260904183524 36 35 4.8 12.9 0.00 0.00 0.00 55 1015.3
20260904183430 36 163 4.8 12.9 0.00 0.00 0.00 57 1015.2
20260904183338 36 78 6.4 12.9 0.00 0.00 0.00 57 1015.3
20260904183309 36 12 8.0 12.9 0.00 0.00 0.00 57 1015.3
20260904183045 36 15 9.7 25.7 0.00 0.00 0.00 56 1015.2
20260904182951 36 16 9.7 25.7 0.00 0.00 0.00 57 1015.2
20260904182857 36 349 8.0 25.7 0.00 0.00 0.00 57 1015.3
20260904182723 36 325 4.8 25.7 0.00 0.00 0.00 56 1015.3
20260904182631 36 5 4.8 25.7 0.00 0.00 0.00 55 1015.4
20260904182518 36 9 4.8 25.7 0.00 0.00 0.00 56 1015.4
20260904182426 36 36 6.4 25.7 0.00 0.00 0.00 55 1015.3
20260904182337 36 331 11.3 25.7 0.00 0.00 0.00 56 1015.4
20260904182224 36 22 14.5 25.7 0.00 0.00 0.00 55 1015.3
20260904182132 36 148 11.3 20.9 0.00 0.00 0.00 55 1015.3
20260904182018 36 98 4.8 12.9 0.00 0.00 0.00 55 1015.4
20260904181925 36 121 1.6 11.3 0.00 0.00 0.00 55 1015.4
20260904181835 36 281 1.6 11.3 0.00 0.00 0.00 56 1015.4
20260904181807 36 276 1.6 12.9 0.00 0.00 0.00 53 1015.4
20260904181519 36 90 3.2 12.9 0.00 0.00 0.00 54 1015.4
20260904181446 36 90 6.4 12.9 0.00 0.00 0.00 54 1015.4
20260904181332 36 132 6.4 12.9 0.00 0.00 0.00 56 1015.4
20260904181223 36 123 3.2 14.5 0.00 0.00 0.00 56 1015.5
20260904181130 36 112 3.2 14.5 0.00 0.00 0.00 56 1015.5
20260904181036 36 100 4.8 14.5 0.00 0.00 0.00 55 1015.5
20260904180922 36 113 4.8 14.5 0.00 0.00 0.00 54 1015.5
20260904180829 36 65 4.8 14.5 0.00 0.00 0.00 55 1015.5
20260904180720 36 40 4.8 14.5 0.00 0.00 0.00 54 1015.5
20260904180626 36 64 6.4 14.5 0.00 0.00 0.00 54 1015.6
20260904180532 36 88 9.7 14.5 0.00 0.00 0.00 55 1015.6
20260904180420 36 75 6.4 14.5 0.00 0.00 0.00 54 1015.6
20260904180327 36 168 6.4 12.9 0.00 0.00 0.00 56 1015.6
20260904180302 36 118 6.4 12.9 0.00 0.00 0.00 56 1015.6
20260904180035 36 13 8.0 11.3 0.00 0.00 0.00 56 1015.7
20260904175922 36 45 6.4 12.9 0.00 0.00 0.00 57 1015.8
20260904175828 36 46 3.2 9.7 0.00 0.00 0.00 58 1015.8
20260904175736 36 351 1.6 9.7 0.00 0.00 0.00 57 1015.7
20260904175625 36 29 1.6 9.7 0.00 0.00 0.00 57 1015.9
20260904175531 36 28 3.2 9.7 0.00 0.00 0.00 58 1015.7
20260904175418 36 50 6.4 16.1 0.00 0.00 0.00 58 1015.8
20260904175327 36 42 4.8 16.1 0.00 0.00 0.00 57 1015.9
20260904175233 36 46 3.2 16.1 0.00 0.00 0.00 57 1015.9
20260904175120 36 355 6.4 16.1 0.00 0.00 0.00 59 1015.9
20260904175030 36 360 6.4 16.1 0.00 0.00 0.00 62 1015.8
20260904174917 36 346 6.4 16.1 0.00 0.00 0.00 58 1015.9
20260904174824 36 355 9.7 16.1 0.00 0.00 0.00 57 1015.9
20260904174755 36 40 9.7 16.1 0.00 0.00 0.00 59 1015.9
20260904174534 36 49 6.4 12.9 0.00 0.00 0.00 57 1015.9
20260904174421 36 333 3.2 9.7 0.00 0.00 0.00 55 1015.9
20260904174328 36 281 3.2 9.7 0.00 0.00 0.00 55 1015.9
20260904174235 36 225 4.8 9.7 0.00 0.00 0.00 56 1016.0
20260904174122 36 182 4.8 9.7 0.00 0.00 0.00 56 1015.9
20260904174030 36 230 3.2 8.0 0.00 0.00 0.00 57 1016.0
20260904173922 35 213 1.6 8.0 0.00 0.00 0.00 57 1016.0
20260904173828 35 190 1.6 8.0 0.00 0.00 0.00 59 1016.0
20260904173736 35 277 1.6 11.3 0.00 0.00 0.00 60 1016.0
20260904173623 35 321 1.6 11.3 0.00 0.00 0.00 57 1016.0
20260904173531 35 360 1.6 11.3 0.00 0.00 0.00 57 1016.0
20260904173421 35 271 1.6 11.3 0.00 0.00 0.00 59 1016.1
20260904173327 35 341 3.2 11.3 0.00 0.00 0.00 57 1016.0
20260904173256 35 67 3.2 11.3 0.00 0.00 0.00 57 1016.0
20260904173050 35 74 3.2 11.3 0.00 0.00 0.00 56 1016.1
20260904172957 35 91 4.8 11.3 0.00 0.00 0.00 57 1016.1
20260904172826 35 52 4.8 9.7 0.00 0.00 0.00 59 1016.1
20260904172733 35 59 3.2 9.7 0.00 0.00 0.00 59 1016.1
20260904172639 35 59 4.8 9.7 0.00 0.00 0.00 58 1016.1
20260904172525 35 102 4.8 9.7 0.00 0.00 0.00 59 1016.0
20260904172431 35 121 4.8 9.7 0.00 0.00 0.00 59 1016.0
20260904172317 35 25 4.8 8.0 0.00 0.00 0.00 61 1016.1
20260904172229 35 24 6.4 8.0 0.00 0.00 0.00 61 1016.1
20260904172136 35 351 4.8 8.0 0.00 0.00 0.00 60 1016.1
20260904172025 35 308 3.2 9.7 0.00 0.00 0.00 60 1016.1
20260904171932 35 339 1.6 9.7 0.00 0.00 0.00 58 1016.1
20260904171838 35 107 3.2 9.7 0.00 0.00 0.00 61 1016.1
20260904171812 35 50 3.2 9.7 0.00 0.00 0.00 61 1016.1
20260904171524 35 126 3.2 11.3 0.00 0.00 0.00 60 1016.1
20260904171429 35 121 3.2 11.3 0.00 0.00 0.00 62 1016.1
20260904171357 35 101 4.8 11.3 0.00 0.00 0.00 63 1016.1
20260904171222 35 34 4.8 11.3 0.00 0.00 0.00 60 1016.2
20260904171131 35 355 1.6 11.3 0.00 0.00 0.00 61 1016.2
20260904171022 35 186 1.6 11.3 0.00 0.00 0.00 59 1016.2
20260904170928 35 186 3.2 11.3 0.00 0.00 0.00 58 1016.2
20260904170835 35 240 6.4 11.3 0.00 0.00 0.00 57 1016.2
20260904170722 35 188 8.0 11.3 0.00 0.00 0.00 58 1016.2
20260904170628 35 161 8.0 12.9 0.00 0.00 0.00 59 1016.3
20260904170519 35 155 6.4 12.9 0.00 0.00 0.00 60 1016.3
20260904170426 35 87 6.4 12.9 0.00 0.00 0.00 58 1016.3
20260904170354 35 129 4.8 12.9 0.00 0.00 0.00 59 1016.3
20260904170325 35 127 6.4 12.9 0.00 0.00 0.00 58 1016.4
20260904170037 35 157 3.2 12.9 0.00 0.00 0.00 58 1016.3
20260904165928 35 16 3.2 12.9 0.00 0.00 0.00 59 1016.4
20260904165854 35 51 4.8 12.9 0.00 0.00 0.00 60 1016.4
20260904165721 35 26 3.2 11.3 0.00 0.00 0.00 60 1016.4
20260904165628 35 355 3.2 11.3 0.00 0.00 0.00 58 1016.3
20260904165517 35 196 3.2 11.3 0.00 0.00 0.00 60 1016.4
20260904165423 35 147 4.8 11.3 0.00 0.00 0.00 59 1016.4
20260904165350 35 84 4.8 11.3 0.00 0.00 0.00 58 1016.5
20260904165220 35 103 6.4 11.3 0.00 0.00 0.00 59 1016.5
20260904165127 35 64 8.0 11.3 0.00 0.00 0.00 60 1016.5
20260904165054 35 59 8.0 11.3 0.00 0.00 0.00 60 1016.6
20260904164941 35 49 6.4 12.9 0.00 0.00 0.00 60 1016.5
20260904164846 35 15 3.2 9.7 0.00 0.00 0.00 58 1016.5
20260904164800 35 28 4.8 9.7 0.00 0.00 0.00 58 1016.5
20260904164534 35 46 4.8 9.7 0.00 0.00 0.00 60 1016.5
20260904164420 35 31 6.4 9.7 0.00 0.00 0.00 59 1016.5
20260904164328 35 35 6.4 11.3 0.00 0.00 0.00 61 1016.6
20260904164234 35 80 4.8 9.7 0.00 0.00 0.00 60 1016.6
20260904164120 35 50 4.8 9.7 0.00 0.00 0.00 65 1016.6
20260904164050 35 86 4.8 9.7 0.00 0.00 0.00 63 1016.6
20260904163936 35 83 4.8 9.7 0.00 0.00 0.00 60 1016.6
20260904163822 35 53 3.2 9.7 0.00 0.00 0.00 61 1016.6
20260904163747 34 22 1.6 6.4 0.00 0.00 0.00 60 1016.6
20260904163634 34 24 1.6 6.4 0.00 0.00 0.00 59 1016.7
20260904163520 34 157 1.6 8.0 0.00 0.00 0.00 60 1016.6
20260904163426 34 293 1.6 8.0 0.00 0.00 0.00 60 1016.6
20260904163336 34 275 1.6 8.0 0.00 0.00 0.00 60 1016.7
20260904163307 34 196 3.2 9.7 0.00 0.00 0.00 60 1016.7
20260904163020 35 213 4.8 9.7 0.00 0.00 0.00 60 1016.7
20260904162928 35 230 4.8 9.7 0.00 0.00 0.00 60 1016.7
20260904162839 35 254 4.8 9.7 0.00 0.00 0.00 60 1016.6
20260904162744 35 171 6.4 9.7 0.00 0.00 0.00 59 1016.6
20260904162630 35 190 4.8 9.7 0.00 0.00 0.00 60 1016.7
20260904162556 35 209 6.4 9.7 0.00 0.00 0.00 60 1016.6
20260904162422 35 198 4.8 9.7 0.00 0.00 0.00 60 1016.6
20260904162327 35 176 3.2 9.7 0.00 0.00 0.00 60 1016.7
20260904162234 35 260 3.2 9.7 0.00 0.00 0.00 61 1016.6
20260904162126 35 254 3.2 9.7 0.00 0.00 0.00 60 1016.7
20260904162033 35 275 3.2 9.7 0.00 0.00 0.00 60 1016.6
20260904161920 35 212 4.8 9.7 0.00 0.00 0.00 60 1016.7
20260904161848 35 194 4.8 9.7 0.00 0.00 0.00 60 1016.7
20260904161818 35 226 4.8 11.3 0.00 0.00 0.00 60 1016.7
20260904161554 35 265 6.4 11.3 0.00 0.00 0.00 61 1016.7
20260904161441 35 292 3.2 11.3 0.00 0.00 0.00 63 1016.8
20260904161327 35 231 1.6 11.3 0.00 0.00 0.00 62 1016.7
20260904161233 34 191 3.2 11.3 0.00 0.00 0.00 60 1016.7
20260904161119 35 149 4.8 11.3 0.00 0.00 0.00 60 1016.7
20260904161026 35 199 6.4 11.3 0.00 0.00 0.00 60 1016.7
20260904160917 35 187 4.8 11.3 0.00 0.00 0.00 61 1016.8
20260904160823 35 238 3.2 8.0 0.00 0.00 0.00 61 1016.8
20260904160731 35 178 3.2 6.4 0.00 0.00 0.00 60 1016.7
20260904160618 35 153 3.2 8.0 0.00 0.00 0.00 61 1016.8
20260904160545 34 155 3.2 8.0 0.00 0.00 0.00 60 1016.7
20260904160452 34 142 1.6 8.0 0.00 0.00 0.00 60 1016.8
20260904160358 34 200 1.6 8.0 0.00 0.00 0.00 60 1016.7
20260904160252 35 90 1.6 8.0 0.00 0.00 0.00 59 1016.7
20260904160025 34 338 1.6 8.0 0.00 0.00 0.00 60 1016.8
20260904155933 34 233 3.2 8.0 0.00 0.00 0.00 59 1016.8
20260904155820 35 233 4.8 8.0 0.00 0.00 0.00 59 1016.8
20260904155731 35 238 3.2 6.4 0.00 0.00 0.00 62 1016.7
20260904155617 34 165 1.6 8.0 0.00 0.00 0.00 61 1016.7
20260904155543 34 234 1.6 8.0 0.00 0.00 0.00 61 1016.7
20260904155429 34 111 1.6 9.7 0.00 0.00 0.00 62 1016.7
20260904155335 34 5 1.6 9.7 0.00 0.00 0.00 61 1016.8
20260904155223 34 5 1.6 9.7 0.00 0.00 0.00 60 1016.8
20260904155149 34 5 0.0 9.7 0.00 0.00 0.00 60 1016.8
20260904155019 34 5 1.6 9.7 0.00 0.00 0.00 62 1016.8
20260904154927 34 346 3.2 9.7 0.00 0.00 0.00 61 1016.8
20260904154834 34 258 4.8 9.7 0.00 0.00 0.00 60 1016.8
20260904154804 34 214 4.8 9.7 0.00 0.00 0.00 60 1016.8
20260904154522 34 198 3.2 9.7 0.00 0.00 0.00 62 1016.8
20260904154430 34 158 4.8 9.7 0.00 0.00 0.00 63 1016.9
20260904154337 34 205 4.8 9.7 0.00 0.00 0.00 64 1016.9
20260904154222 34 189 1.6 4.8 0.00 0.00 0.00 63 1016.8
20260904154131 34 321 0.0 4.8 0.00 0.00 0.00 63 1016.8
20260904154022 33 94 0.0 4.8 0.00 0.00 0.00 62 1016.8
20260904153927 33 46 0.0 8.0 0.00 0.00 0.00 61 1016.9
20260904153834 33 46 1.6 8.0 0.00 0.00 0.00 62 1016.9
20260904153721 33 46 3.2 8.0 0.00 0.00 0.00 63 1016.8
20260904153629 33 46 3.2 9.7 0.00 0.00 0.00 62 1016.9
20260904153535 33 44 1.6 9.7 0.00 0.00 0.00 63 1016.9
20260904153426 33 49 3.2 9.7 0.00 0.00 0.00 63 1016.9
20260904153332 33 51 4.8 9.7 0.00 0.00 0.00 63 1016.9
20260904153303 33 49 4.8 9.7 0.00 0.00 0.00 62 1016.9
20260904153057 33 129 4.8 9.7 0.00 0.00 0.00 64 1016.8
20260904152923 33 122 4.8 9.7 0.00 0.00 0.00 62 1016.9
20260904152833 33 180 4.8 9.7 0.00 0.00 0.00 62 1016.8
20260904152739 33 273 3.2 6.4 0.00 0.00 0.00 63 1016.8
20260904152625 33 199 1.6 8.0 0.00 0.00 0.00 64 1016.8
20260904152550 33 200 1.6 8.0 0.00 0.00 0.00 64 1016.8
20260904152436 33 46 1.6 8.0 0.00 0.00 0.00 63 1016.8
20260904152323 33 68 3.2 8.0 0.00 0.00 0.00 65 1016.8
20260904152229 33 117 3.2 8.0 0.00 0.00 0.00 63 1016.8
20260904152120 33 121 3.2 8.0 0.00 0.00 0.00 64 1016.8
20260904152026 33 124 3.2 8.0 0.00 0.00 0.00 64 1016.8
20260904151935 33 172 3.2 6.4 0.00 0.00 0.00 65 1016.8
20260904151822 33 126 1.6 4.8 0.00 0.00 0.00 65 1016.8
20260904151757 33 121 1.6 4.8 0.00 0.00 0.00 65 1016.8
20260904151531 33 220 1.6 4.8 0.00 0.00 0.00 63 1016.8
20260904151420 33 302 1.6 4.8 0.00 0.00 0.00 63 1016.8
20260904151323 33 348 1.6 4.8 0.00 0.00 0.00 64 1016.8
20260904151230 33 101 3.2 4.8 0.00 0.00 0.00 63 1016.8
20260904151117 33 188 3.2 4.8 0.00 0.00 0.00 63 1016.8
20260904151028 33 183 1.6 4.8 0.00 0.00 0.00 64 1016.8
20260904150935 33 154 1.6 9.7 0.00 0.00 0.00 65 1016.8
20260904150822 33 209 0.0 9.7 0.00 0.00 0.00 67 1016.8
20260904150728 33 209 0.0 9.7 0.00 0.00 0.00 65 1016.8
20260904150656 33 209 1.6 9.7 0.00 0.00 0.00 65 1016.7
20260904150524 33 224 1.6 9.7 0.00 0.00 0.00 65 1016.7
20260904150456 33 360 1.6 9.7 0.00 0.00 0.00 65 1016.7
20260904150401 33 82 3.2 9.7 0.00 0.00 0.00 65 1016.7
20260904150311 32 117 4.8 9.7 0.00 0.00 0.00 65 1016.8
20260904150024 32 208 3.2 11.3 0.00 0.00 0.00 66 1016.7
20260904145930 32 159 4.8 11.3 0.00 0.00 0.00 66 1016.7
20260904145841 32 206 4.8 11.3 0.00 0.00 0.00 65 1016.7
20260904145747 32 230 4.8 11.3 0.00 0.00 0.00 67 1016.7
20260904145652 32 209 1.6 11.3 0.00 0.00 0.00 67 1016.6
20260904145518 32 267 1.6 11.3 0.00 0.00 0.00 67 1016.6
20260904145426 32 307 1.6 11.3 0.00 0.00 0.00 67 1016.6
20260904145333 32 201 4.8 11.3 0.00 0.00 0.00 67 1016.7
20260904145220 32 216 4.8 11.3 0.00 0.00 0.00 66 1016.6
20260904145131 32 190 3.2 11.3 0.00 0.00 0.00 67 1016.6
20260904145038 32 177 1.6 8.0 0.00 0.00 0.00 66 1016.7
20260904144926 32 315 1.6 8.0 0.00 0.00 0.00 66 1016.6
20260904144831 32 61 3.2 8.0 0.00 0.00 0.00 66 1016.6
20260904144802 32 109 3.2 8.0 0.00 0.00 0.00 66 1016.6
20260904144539 32 207 3.2 8.0 0.00 0.00 0.00 66 1016.6
20260904144444 32 147 4.8 8.0 0.00 0.00 0.00 68 1016.6
20260904144331 32 114 3.2 8.0 0.00 0.00 0.00 69 1016.6
20260904144218 32 142 3.2 8.0 0.00 0.00 0.00 66 1016.5
20260904144125 32 200 1.6 8.0 0.00 0.00 0.00 66 1016.6
20260904144032 32 248 1.6 8.0 0.00 0.00 0.00 68 1016.6
20260904143923 32 66 0.0 8.0 0.00 0.00 0.00 66 1016.5
20260904143829 32 65 1.6 8.0 0.00 0.00 0.00 67 1016.6
20260904143717 32 195 3.2 8.0 0.00 0.00 0.00 66 1016.7
20260904143645 32 183 3.2 8.0 0.00 0.00 0.00 67 1016.6
20260904143552 32 234 1.6 8.0 0.00 0.00 0.00 68 1016.6
20260904143418 32 202 0.0 8.0 0.00 0.00 0.00 68 1016.5
20260904143325 32 219 0.0 8.0 0.00 0.00 0.00 69 1016.5
20260904143259 32 219 1.6 8.0 0.00 0.00 0.00 69 1016.5
20260904143032 32 174 1.6 8.0 0.00 0.00 0.00 69 1016.6
20260904142939 32 270 0.0 8.0 0.00 0.00 0.00 69 1016.6
20260904142824 31 238 1.6 8.0 0.00 0.00 0.00 68 1016.5
20260904142731 31 238 3.2 8.0 0.00 0.00 0.00 69 1016.5
20260904142621 31 188 3.2 8.0 0.00 0.00 0.00 68 1016.5
20260904142548 31 180 3.2 8.0 0.00 0.00 0.00 68 1016.5
20260904142435 31 230 1.6 8.0 0.00 0.00 0.00 68 1016.5
20260904142320 31 114 3.2 8.0 0.00 0.00 0.00 68 1016.5
20260904142228 31 114 3.2 8.0 0.00 0.00 0.00 68 1016.6
20260904142135 31 163 3.2 8.0 0.00 0.00 0.00 68 1016.5
20260904142025 31 191 4.8 8.0 0.00 0.00 0.00 68 1016.5
20260904141930 31 171 3.2 6.4 0.00 0.00 0.00 69 1016.5
20260904141838 31 170 1.6 8.0 0.00 0.00 0.00 70 1016.5
20260904141808 31 200 1.6 8.0 0.00 0.00 0.00 70 1016.5
20260904141525 31 78 0.0 8.0 0.00 0.00 0.00 71 1016.6
20260904141432 31 259 0.0 8.0 0.00 0.00 0.00 69 1016.6
20260904141318 31 259 1.6 8.0 0.00 0.00 0.00 70 1016.6
20260904141226 31 259 1.6 8.0 0.00 0.00 0.00 71 1016.5
20260904141153 31 257 3.2 8.0 0.00 0.00 0.00 71 1016.5
20260904141020 31 194 4.8 11.3 0.00 0.00 0.00 70 1016.6
20260904140932 31 206 4.8 11.3 0.00 0.00 0.00 71 1016.6
20260904140819 31 221 3.2 11.3 0.00 0.00 0.00 72 1016.6
20260904140726 31 157 1.6 11.3 0.00 0.00 0.00 71 1016.5
20260904140632 31 204 1.6 11.3 0.00 0.00 0.00 72 1016.5
20260904140518 31 184 3.2 11.3 0.00 0.00 0.00 71 1016.5
20260904140424 31 145 3.2 11.3 0.00 0.00 0.00 71 1016.5
20260904140335 31 194 6.4 11.3 0.00 0.00 0.00 71 1016.5
20260904140305 31 194 8.0 12.9 0.00 0.00 0.00 71 1016.5
20260904140017 30 182 8.0 11.3 0.00 0.00 0.00 72 1016.5
20260904135923 30 123 6.4 11.3 0.00 0.00 0.00 72 1016.5
20260904135835 30 111 3.2 6.4 0.00 0.00 0.00 73 1016.5
20260904135721 30 120 1.6 6.4 0.00 0.00 0.00 73 1016.5
20260904135627 30 96 0.0 6.4 0.00 0.00 0.00 72 1016.5
20260904135535 30 120 1.6 6.4 0.00 0.00 0.00 73 1016.5
20260904135419 30 120 3.2 6.4 0.00 0.00 0.00 73 1016.5
20260904135327 30 119 3.2 6.4 0.00 0.00 0.00 73 1016.5
20260904135237 30 129 1.6 6.4 0.00 0.00 0.00 73 1016.5
20260904135143 30 96 3.2 6.4 0.00 0.00 0.00 73 1016.5
20260904135027 30 92 4.8 6.4 0.00 0.00 0.00 73 1016.4
20260904134953 30 107 4.8 6.4 0.00 0.00 0.00 74 1016.5
20260904134819 30 146 1.6 6.4 0.00 0.00 0.00 72 1016.5
20260904134753 30 127 1.6 6.4 0.00 0.00 0.00 73 1016.5
20260904134525 30 79 1.6 4.8 0.00 0.00 0.00 73 1016.5
20260904134433 30 79 3.2 4.8 0.00 0.00 0.00 73 1016.5
20260904134319 30 113 4.8 4.8 0.00 0.00 0.00 72 1016.5
20260904134226 30 131 3.2 4.8 0.00 0.00 0.00 72 1016.5
20260904134117 30 90 1.6 4.8 0.00 0.00 0.00 72 1016.5
20260904134024 30 118 1.6 4.8 0.00 0.00 0.00 73 1016.6
20260904133931 30 117 0.0 4.8 0.00 0.00 0.00 73 1016.5
20260904133819 30 98 1.6 4.8 0.00 0.00 0.00 73 1016.5
20260904133727 30 98 1.6 4.8 0.00 0.00 0.00 73 1016.5
20260904133634 30 123 1.6 4.8 0.00 0.00 0.00 72 1016.5
20260904133524 30 107 1.6 4.8 0.00 0.00 0.00 73 1016.4
20260904133431 30 107 1.6 4.8 0.00 0.00 0.00 73 1016.5
20260904133338 30 78 1.6 4.8 0.00 0.00 0.00 73 1016.5
20260904133309 30 88 1.6 4.8 0.00 0.00 0.00 73 1016.5
20260904133025 30 84 1.6 4.8 0.00 0.00 0.00 73 1016.4
20260904132933 30 126 0.0 3.2 0.00 0.00 0.00 73 1016.5
20260904132858 30 53 0.0 4.8 0.00 0.00 0.00 73 1016.6
20260904132743 30 53 0.0 4.8 0.00 0.00 0.00 73 1016.5
20260904132649 30 109 0.0 4.8 0.00 0.00 0.00 73 1016.6
20260904132537 30 110 0.0 4.8 0.00 0.00 0.00 73 1016.5
20260904132443 30 94 0.0 4.8 0.00 0.00 0.00 74 1016.5
20260904132329 30 112 1.6 4.8 0.00 0.00 0.00 73 1016.6
20260904132220 30 154 1.6 4.8 0.00 0.00 0.00 74 1016.5
20260904132127 30 66 1.6 4.8 0.00 0.00 0.00 74 1016.5
20260904132033 30 71 1.6 4.8 0.00 0.00 0.00 75 1016.5
20260904131920 30 80 1.6 4.8 0.00 0.00 0.00 75 1016.5
20260904131849 30 57 1.6 4.8 0.00 0.00 0.00 75 1016.5
20260904131802 30 71 1.6 4.8 0.00 0.00 0.00 75 1016.5
20260904131554 30 74 3.2 4.8 0.00 0.00 0.00 76 1016.5
20260904131420 30 99 1.6 3.2 0.00 0.00 0.00 76 1016.5
20260904131326 30 85 0.0 3.2 0.00 0.00 0.00 77 1016.5
20260904131234 30 76 0.0 3.2 0.00 0.00 0.00 77 1016.4
20260904131125 29 126 1.6 3.2 0.00 0.00 0.00 77 1016.4
20260904131051 29 126 1.6 3.2 0.00 0.00 0.00 77 1016.4
20260904130917 29 119 0.0 3.2 0.00 0.00 0.00 78 1016.5
20260904130825 29 107 0.0 1.6 0.00 0.00 0.00 78 1016.5
20260904130752 29 67 0.0 1.6 0.00 0.00 0.00 78 1016.4
20260904130617 29 360 0.0 0.0 0.00 0.00 0.00 78 1016.5
20260904130523 29 360 0.0 0.0 0.00 0.00 0.00 79 1016.5
20260904130435 28 360 0.0 0.0 0.00 0.00 0.00 79 1016.6
20260904130322 28 360 0.0 0.0 0.00 0.00 0.00 80 1016.4
20260904130253 28 360 0.0 1.6 0.00 0.00 0.00 80 1016.4
20260904130027 28 360 0.0 1.6 0.00 0.00 0.00 80 1016.4
20260904125937 28 360 0.0 3.2 0.00 0.00 0.00 80 1016.5
20260904125844 28 360 0.0 3.2 0.00 0.00 0.00 81 1016.4
20260904125728 28 360 0.0 3.2 0.00 0.00 0.00 81 1016.4
20260904125636 28 360 0.0 3.2 0.00 0.00 0.00 81 1016.4
20260904125523 28 360 0.0 3.2 0.00 0.00 0.00 81 1016.5
20260904125429 28 360 0.0 3.2 0.00 0.00 0.00 81 1016.5
20260904125320 28 360 0.0 3.2 0.00 0.00 0.00 81 1016.5
20260904125227 28 360 0.0 3.2 0.00 0.00 0.00 82 1016.4
20260904125133 28 360 1.6 3.2 0.00 0.00 0.00 83 1016.3
20260904125020 28 360 0.0 3.2 0.00 0.00 0.00 82 1016.4
20260904124926 27 360 0.0 3.2 0.00 0.00 0.00 82 1016.4
20260904124833 27 360 0.0 3.2 0.00 0.00 0.00 82 1016.4
20260904124808 27 360 0.0 3.2 0.00 0.00 0.00 83 1016.4
20260904124521 27 360 1.6 3.2 0.00 0.00 0.00 82 1016.4
20260904124448 27 360 1.6 3.2 0.00 0.00 0.00 83 1016.3
20260904124334 27 360 1.6 3.2 0.00 0.00 0.00 82 1016.3
20260904124224 27 360 1.6 3.2 0.00 0.00 0.00 83 1016.2
20260904124151 27 360 1.6 3.2 0.00 0.00 0.00 83 1016.4
20260904124036 27 360 0.0 4.8 0.00 0.00 0.00 84 1016.3
20260904123923 27 360 0.0 4.8 0.00 0.00 0.00 84 1016.3
20260904123848 27 360 0.0 4.8 0.00 0.00 0.00 84 1016.3
20260904123733 27 360 0.0 4.8 0.00 0.00 0.00 84 1016.3
20260904123620 27 360 0.0 4.8 0.00 0.00 0.00 84 1016.3
20260904123550 27 360 1.6 4.8 0.00 0.00 0.00 84 1016.2
20260904123435 27 360 1.6 4.8 0.00 0.00 0.00 84 1016.3
20260904123323 26 360 1.6 3.2 0.00 0.00 0.00 85 1016.3
20260904123253 26 360 1.6 3.2 0.00 0.00 0.00 85 1016.3
20260904123046 26 140 0.0 1.6 0.00 0.00 0.00 85 1016.2
20260904122953 26 140 0.0 0.0 0.00 0.00 0.00 85 1016.2
20260904122823 26 140 0.0 0.0 0.00 0.00 0.00 86 1016.2
20260904122729 26 140 0.0 1.6 0.00 0.00 0.00 86 1016.2
20260904122635 26 140 0.0 1.6 0.00 0.00 0.00 86 1016.2
20260904122521 26 140 0.0 3.2 0.00 0.00 0.00 86 1016.2
20260904122430 26 140 0.0 3.2 0.00 0.00 0.00 87 1016.2
20260904122340 26 140 0.0 3.2 0.00 0.00 0.00 87 1016.1
20260904122246 26 140 0.0 3.2 0.00 0.00 0.00 87 1016.1
20260904122133 26 140 0.0 3.2 0.00 0.00 0.00 87 1016.1
20260904122020 26 140 0.0 3.2 0.00 0.00 0.00 87 1016.1
20260904121926 26 140 1.6 3.2 0.00 0.00 0.00 87 1016.1
20260904121833 26 140 1.6 3.2 0.00 0.00 0.00 87 1016.2
20260904121809 26 140 1.6 3.2 0.00 0.00 0.00 88 1016.2
20260904121522 25 140 0.0 3.2 0.00 0.00 0.00 88 1016.1
20260904121448 25 140 0.0 3.2 0.00 0.00 0.00 88 1016.1
20260904121336 25 140 0.0 3.2 0.00 0.00 0.00 88 1016.1
20260904121224 25 140 1.6 3.2 0.00 0.00 0.00 88 1016.1
20260904121134 25 140 1.6 3.2 0.00 0.00 0.00 88 1016.1
20260904121021 25 140 1.6 3.2 0.00 0.00 0.00 88 1016.1
20260904120948 25 140 1.6 3.2 0.00 0.00 0.00 88 1016.1
20260904120835 25 140 1.6 3.2 0.00 0.00 0.00 89 1016.1
20260904120722 25 140 1.6 3.2 0.00 0.00 0.00 89 1016.1
20260904120630 25 140 1.6 3.2 0.00 0.00 0.00 89 1016.1
20260904120522 25 140 1.6 3.2 0.00 0.00 0.00 89 1016.1
20260904120448 25 140 1.6 3.2 0.00 0.00 0.00 89 1016.1
20260904120355 25 140 1.6 3.2 0.00 0.00 0.00 89 1016.1
20260904120304 25 140 1.6 3.2 0.00 0.00 0.00 90 1016.1
20260904120036 25 140 3.2 3.2 0.00 0.00 0.00 90 1016.0
20260904115926 25 140 3.2 3.2 0.00 0.00 0.00 90 1015.9
20260904115833 25 140 1.6 3.2 0.00 0.00 0.00 90 1016.0
20260904115719 25 140 1.6 3.2 0.00 0.00 0.00 90 1016.0
20260904115627 25 140 1.6 3.2 0.00 0.00 0.00 90 1016.0
20260904115535 25 140 1.6 3.2 0.00 0.00 0.00 90 1016.0
20260904115420 25 155 0.0 3.2 0.00 0.00 0.00 90 1016.0
20260904115332 25 155 0.0 3.2 0.00 0.00 0.00 91 1016.1
20260904115219 25 155 1.6 3.2 0.00 0.00 0.00 91 1016.0
20260904115126 25 155 1.6 3.2 0.00 0.00 0.00 91 1015.9
20260904115034 25 155 0.0 3.2 0.00 0.00 0.00 91 1016.0
20260904114921 25 109 1.6 3.2 0.00 0.00 0.00 90 1015.9
20260904114802 24 109 0.0 3.2 0.00 0.00 0.00 91 1016.0
20260904114536 24 109 0.0 0.0 0.00 0.00 0.00 91 1016.0
20260904114424 24 109 0.0 0.0 0.00 0.00 0.00 91 1015.9
20260904114330 24 109 0.0 1.6 0.00 0.00 0.00 91 1015.9
20260904114220 24 109 0.0 3.2 0.00 0.00 0.00 91 1016.0
20260904114128 24 109 0.0 3.2 0.00 0.00 0.00 91 1015.9
20260904114037 24 109 0.0 4.8 0.00 0.00 0.00 91 1016.0
20260904113924 24 109 0.0 4.8 0.00 0.00 0.00 91 1015.9
20260904113829 24 109 0.0 4.8 0.00 0.00 0.00 91 1015.9
20260904113721 24 109 0.0 4.8 0.00 0.00 0.00 91 1015.9
20260904113628 24 109 0.0 4.8 0.00 0.00 0.00 92 1015.9
20260904113557 24 109 0.0 4.8 0.00 0.00 0.00 92 1015.9
20260904113424 24 109 1.6 4.8 0.00 0.00 0.00 92 1015.7
20260904113305 24 109 1.6 4.8 0.00 0.00 0.00 92 1015.9
20260904113018 24 69 0.0 3.2 0.00 0.00 0.00 92 1015.9
20260904112924 24 9 0.0 3.2 0.00 0.00 0.00 92 1015.8
20260904112852 24 9 0.0 3.2 0.00 0.00 0.00 92 1015.7
20260904112737 24 9 0.0 3.2 0.00 0.00 0.00 92 1015.8
20260904112623 24 5 0.0 3.2 0.00 0.00 0.00 91 1015.7
20260904112555 24 9 0.0 3.2 0.00 0.00 0.00 91 1015.8
20260904112421 24 9 0.0 3.2 0.00 0.00 0.00 92 1015.8
20260904112329 24 9 0.0 3.2 0.00 0.00 0.00 92 1015.7
20260904112256 24 9 0.0 3.2 0.00 0.00 0.00 92 1015.7
20260904112120 24 9 1.6 3.2 0.00 0.00 0.00 92 1015.7
20260904112049 24 9 1.6 4.8 0.00 0.00 0.00 91 1015.6
20260904111917 24 9 1.6 4.8 0.00 0.00 0.00 91 1015.6
20260904111828 24 5 1.6 4.8 0.00 0.00 0.00 91 1015.7
20260904111759 24 5 1.6 4.8 0.00 0.00 0.00 91 1015.7
20260904111532 24 9 1.6 4.8 0.00 0.00 0.00 91 1015.7
20260904111438 24 9 1.6 4.8 0.00 0.00 0.00 91 1015.8
20260904111325 24 9 1.6 4.8 0.00 0.00 0.00 92 1015.6
20260904111236 24 9 3.2 4.8 0.00 0.00 0.00 91 1015.8
20260904111123 24 9 3.2 4.8 0.00 0.00 0.00 91 1015.7
20260904111050 24 9 3.2 4.8 0.00 0.00 0.00 91 1015.7
20260904110935 24 9 3.2 4.8 0.00 0.00 0.00 91 1015.8
20260904110823 24 9 3.2 4.8 0.00 0.00 0.00 91 1015.8
20260904110729 24 9 3.2 4.8 0.00 0.00 0.00 91 1015.7
20260904110620 24 9 3.2 4.8 0.00 0.00 0.00 91 1015.7
20260904110527 24 9 3.2 4.8 0.00 0.00 0.00 91 1015.7
20260904110435 24 9 3.2 4.8 0.00 0.00 0.00 91 1015.6
20260904110320 24 9 3.2 4.8 0.00 0.00 0.00 91 1015.6
20260904110254 24 9 3.2 4.8 0.00 0.00 0.00 91 1015.6
20260904110026 24 5 3.2 4.8 0.00 0.00 0.00 91 1015.5
20260904105934 24 17 3.2 4.8 0.00 0.00 0.00 91 1015.5
20260904105822 24 355 3.2 4.8 0.00 0.00 0.00 91 1015.5
20260904105728 24 355 3.2 4.8 0.00 0.00 0.00 91 1015.4
20260904105620 24 355 3.2 4.8 0.00 0.00 0.00 91 1015.5
20260904105528 24 355 3.2 4.8 0.00 0.00 0.00 91 1015.4
20260904105435 24 355 3.2 4.8 0.00 0.00 0.00 91 1015.4
20260904105321 24 355 3.2 4.8 0.00 0.00 0.00 91 1015.5
20260904105227 24 355 3.2 4.8 0.00 0.00 0.00 91 1015.4
20260904105135 24 355 4.8 6.4 0.00 0.00 0.00 91 1015.3
20260904105026 24 5 3.2 6.4 0.00 0.00 0.00 91 1015.4
20260904104932 24 355 3.2 6.4 0.00 0.00 0.00 91 1015.3
20260904104811 24 5 3.2 6.4 0.00 0.00 0.00 91 1015.4
20260904104527 24 349 4.8 6.4 0.00 0.00 0.00 91 1015.4
20260904104433 24 350 4.8 6.4 0.00 0.00 0.00 91 1015.4
20260904104320 24 360 4.8 6.4 0.00 0.00 0.00 91 1015.4
20260904104226 24 355 4.8 6.4 0.00 0.00 0.00 91 1015.4
20260904104154 24 350 3.2 6.4 0.00 0.00 0.00 91 1015.4
20260904104019 24 355 3.2 4.8 0.00 0.00 0.00 91 1015.4
20260904103930 24 355 3.2 4.8 0.00 0.00 0.00 91 1015.4
20260904103818 24 355 3.2 4.8 0.00 0.00 0.00 91 1015.3
20260904103744 24 355 3.2 4.8 0.00 0.00 0.00 91 1015.3
20260904103650 24 355 3.2 4.8 0.00 0.00 0.00 91 1015.3
20260904103536 24 355 3.2 4.8 0.00 0.00 0.00 91 1015.3
20260904103423 24 355 3.2 4.8 0.00 0.00 0.00 91 1015.3
20260904103306 24 355 3.2 4.8 0.00 0.00 0.00 91 1015.4
20260904103039 24 355 3.2 4.8 0.00 0.00 0.00 91 1015.3
20260904102926 24 355 3.2 4.8 0.00 0.00 0.00 91 1015.4
20260904102854 24 355 3.2 4.8 0.00 0.00 0.00 91 1015.3
20260904102718 24 355 3.2 4.8 0.00 0.00 0.00 91 1015.3
20260904102630 24 355 3.2 4.8 0.00 0.00 0.00 91 1015.2
20260904102538 24 355 3.2 4.8 0.00 0.00 0.00 91 1015.3
20260904102423 24 355 3.2 4.8 0.00 0.00 0.00 91 1015.3
20260904102329 24 355 3.2 4.8 0.00 0.00 0.00 91 1015.3
20260904102256 24 355 3.2 6.4 0.00 0.00 0.00 91 1015.2
20260904102120 24 355 3.2 6.4 0.00 0.00 0.00 91 1015.2
20260904102027 24 355 3.2 6.4 0.00 0.00 0.00 91 1015.2
20260904101919 24 355 3.2 6.4 0.00 0.00 0.00 91 1015.3
20260904101846 24 355 3.2 6.4 0.00 0.00 0.00 91 1015.3
20260904101816 24 355 3.2 6.4 0.00 0.00 0.00 91 1015.3
20260904101528 24 344 4.8 6.4 0.00 0.00 0.00 91 1015.2
20260904101419 24 351 4.8 6.4 0.00 0.00 0.00 91 1015.1
20260904101325 24 340 4.8 4.8 0.00 0.00 0.00 91 1015.3
20260904101232 24 355 3.2 4.8 0.00 0.00 0.00 91 1015.1
20260904101119 24 338 3.2 4.8 0.00 0.00 0.00 91 1015.2
20260904101026 24 338 3.2 4.8 0.00 0.00 0.00 91 1015.2
20260904100932 24 5 3.2 4.8 0.00 0.00 0.00 91 1015.1
20260904100824 24 5 3.2 4.8 0.00 0.00 0.00 91 1015.2
20260904100732 24 5 3.2 3.2 0.00 0.00 0.00 91 1015.2
20260904100618 24 5 1.6 3.2 0.00 0.00 0.00 91 1015.2
20260904100545 24 5 0.0 4.8 0.00 0.00 0.00 91 1015.1
20260904100451 24 5 0.0 4.8 0.00 0.00 0.00 91 1015.2
20260904100318 24 5 0.0 4.8 0.00 0.00 0.00 91 1015.1
20260904100251 24 5 1.6 4.8 0.00 0.00 0.00 91 1015.1
20260904100023 24 5 1.6 4.8 0.00 0.00 0.00 91 1015.1
20260904095930 24 5 3.2 4.8 0.00 0.00 0.00 91 1015.0
20260904095836 24 5 3.2 4.8 0.00 0.00 0.00 90 1015.0
20260904095742 24 5 3.2 4.8 0.00 0.00 0.00 91 1015.0
20260904095626 24 5 3.2 4.8 0.00 0.00 0.00 91 1015.0
20260904095518 24 5 3.2 4.8 0.00 0.00 0.00 91 1015.1
20260904095424 24 5 3.2 4.8 0.00 0.00 0.00 91 1015.0
20260904095330 24 5 3.2 4.8 0.00 0.00 0.00 91 1015.0
20260904095236 24 5 3.2 4.8 0.00 0.00 0.00 91 1015.0
20260904095123 24 5 3.2 4.8 0.00 0.00 0.00 91 1015.0
20260904095034 24 5 3.2 4.8 0.00 0.00 0.00 91 1015.0
20260904094923 24 5 3.2 4.8 0.00 0.00 0.00 91 1015.0
20260904094850 24 351 4.8 4.8 0.00 0.00 0.00 91 1015.0
20260904094758 24 355 4.8 4.8 0.00 0.00 0.00 90 1015.0
20260904094533 24 355 3.2 4.8 0.00 0.00 0.00 90 1014.9
20260904094425 24 355 3.2 3.2 0.00 0.00 0.00 90 1015.0
20260904094332 24 325 3.2 3.2 0.00 0.00 0.00 90 1015.0
20260904094218 24 325 1.6 3.2 0.00 0.00 0.00 90 1015.0
20260904094124 24 325 1.6 3.2 0.00 0.00 0.00 90 1014.9
20260904094050 24 325 1.6 3.2 0.00 0.00 0.00 90 1015.0
20260904093935 24 325 1.6 3.2 0.00 0.00 0.00 90 1015.0
20260904093826 24 325 1.6 3.2 0.00 0.00 0.00 91 1015.0
20260904093734 24 325 1.6 3.2 0.00 0.00 0.00 91 1014.9
20260904093622 24 325 1.6 3.2 0.00 0.00 0.00 91 1014.9
20260904093529 24 325 1.6 3.2 0.00 0.00 0.00 91 1014.9
20260904093418 25 325 1.6 3.2 0.00 0.00 0.00 91 1014.9
20260904093344 25 325 1.6 3.2 0.00 0.00 0.00 91 1014.9
20260904093319 25 325 1.6 3.2 0.00 0.00 0.00 91 1014.9
20260904093032 25 325 1.6 3.2 0.00 0.00 0.00 91 1014.8
20260904092919 25 325 1.6 3.2 0.00 0.00 0.00 90 1015.0
20260904092847 25 325 1.6 3.2 0.00 0.00 0.00 90 1014.9
20260904092731 25 325 1.6 1.6 0.00 0.00 0.00 90 1014.9
20260904092622 25 325 1.6 1.6 0.00 0.00 0.00 90 1014.9
20260904092550 25 325 0.0 1.6 0.00 0.00 0.00 90 1014.9
20260904092437 25 325 0.0 1.6 0.00 0.00 0.00 91 1014.9
20260904092324 25 325 0.0 1.6 0.00 0.00 0.00 90 1015.0
20260904092251 25 325 0.0 3.2 0.00 0.00 0.00 90 1014.9
20260904092117 25 325 0.0 3.2 0.00 0.00 0.00 90 1014.9
20260904092030 25 325 0.0 3.2 0.00 0.00 0.00 90 1014.9
20260904091917 25 325 0.0 3.2 0.00 0.00 0.00 90 1015.0
20260904091845 25 325 0.0 3.2 0.00 0.00 0.00 90 1015.0
20260904091815 25 325 0.0 3.2 0.00 0.00 0.00 90 1015.0
20260904091529 25 325 0.0 4.8 0.00 0.00 0.00 90 1014.9
20260904091421 25 325 1.6 4.8 0.00 0.00 0.00 90 1014.9
20260904091348 25 325 1.6 4.8 0.00 0.00 0.00 90 1014.8
20260904091235 25 325 1.6 4.8 0.00 0.00 0.00 90 1014.8
20260904091120 25 325 1.6 4.8 0.00 0.00 0.00 90 1014.8
20260904091028 25 10 3.2 4.8 0.00 0.00 0.00 90 1014.8
20260904090936 25 10 3.2 4.8 0.00 0.00 0.00 90 1014.9
20260904090845 25 10 3.2 4.8 0.00 0.00 0.00 90 1014.9
20260904090731 25 10 3.2 4.8 0.00 0.00 0.00 90 1014.8
20260904090618 25 10 3.2 4.8 0.00 0.00 0.00 90 1014.9
20260904090525 25 10 3.2 4.8 0.00 0.00 0.00 89 1014.9
20260904090431 25 10 3.2 4.8 0.00 0.00 0.00 89 1014.8
20260904090318 25 10 3.2 4.8 0.00 0.00 0.00 89 1015.0
20260904090253 25 10 3.2 4.8 0.00 0.00 0.00 89 1015.0
20260904090026 25 10 3.2 4.8 0.00 0.00 0.00 89 1014.9
20260904085933 25 10 3.2 4.8 0.00 0.00 0.00 89 1014.8
20260904085820 25 10 3.2 4.8 0.00 0.00 0.00 89 1014.8
20260904085732 25 10 3.2 4.8 0.00 0.00 0.00 89 1014.8
20260904085618 25 10 3.2 4.8 0.00 0.00 0.00 89 1014.9
20260904085526 25 10 3.2 4.8 0.00 0.00 0.00 89 1014.9
20260904085452 25 10 3.2 4.8 0.00 0.00 0.00 89 1014.8
20260904085317 25 10 3.2 4.8 0.00 0.00 0.00 89 1014.9
20260904085243 25 10 3.2 4.8 0.00 0.00 0.00 89 1014.8
20260904085130 25 5 3.2 4.8 0.00 0.00 0.00 89 1014.9
20260904085042 25 360 4.8 4.8 0.00 0.00 0.00 89 1014.9
20260904084947 25 360 3.2 4.8 0.00 0.00 0.00 89 1014.9
20260904084853 25 355 1.6 4.8 0.00 0.00 0.00 89 1014.9
20260904084801 25 355 0.0 4.8 0.00 0.00 0.00 88 1014.8
20260904084535 25 355 0.0 0.0 0.00 0.00 0.00 88 1014.8
20260904084426 25 342 0.0 0.0 0.00 0.00 0.00 88 1014.8
20260904084333 25 276 0.0 0.0 0.00 0.00 0.00 88 1014.8
20260904084220 25 276 0.0 0.0 0.00 0.00 0.00 88 1014.9
20260904084126 25 276 0.0 0.0 0.00 0.00 0.00 87 1014.8
20260904084033 25 276 0.0 0.0 0.00 0.00 0.00 87 1014.8
20260904083920 25 276 0.0 0.0 0.00 0.00 0.00 87 1014.8
20260904083833 25 276 0.0 0.0 0.00 0.00 0.00 87 1014.8
20260904083719 25 276 0.0 0.0 0.00 0.00 0.00 87 1014.8
20260904083626 25 276 0.0 0.0 0.00 0.00 0.00 87 1014.9
20260904083534 25 276 0.0 0.0 0.00 0.00 0.00 87 1014.8
20260904083422 25 276 0.0 0.0 0.00 0.00 0.00 87 1014.8
20260904083348 25 276 0.0 0.0 0.00 0.00 0.00 87 1014.8
20260904083301 25 276 0.0 0.0 0.00 0.00 0.00 87 1014.8
20260904083033 25 276 0.0 0.0 0.00 0.00 0.00 87 1014.8
20260904082921 25 276 0.0 0.0 0.00 0.00 0.00 86 1014.8
20260904082827 25 276 0.0 0.0 0.00 0.00 0.00 86 1014.8
20260904082754 25 276 0.0 0.0 0.00 0.00 0.00 86 1014.9
20260904082624 25 276 0.0 0.0 0.00 0.00 0.00 86 1014.8
20260904082531 25 276 0.0 0.0 0.00 0.00 0.00 86 1014.8
20260904082418 25 276 0.0 0.0 0.00 0.00 0.00 87 1014.8
20260904082325 25 276 0.0 1.6 0.00 0.00 0.00 87 1014.8
20260904082231 25 276 0.0 1.6 0.00 0.00 0.00 87 1014.8
20260904082123 26 276 0.0 1.6 0.00 0.00 0.00 87 1014.8
20260904082030 26 276 0.0 1.6 0.00 0.00 0.00 87 1014.8
20260904081917 26 276 0.0 1.6 0.00 0.00 0.00 87 1014.8
20260904081844 26 276 0.0 1.6 0.00 0.00 0.00 87 1014.9
20260904081816 26 276 0.0 1.6 0.00 0.00 0.00 87 1014.9
20260904081532 26 276 1.6 1.6 0.00 0.00 0.00 87 1014.9
20260904081439 26 276 1.6 1.6 0.00 0.00 0.00 87 1014.8
20260904081325 26 276 1.6 1.6 0.00 0.00 0.00 87 1014.8
20260904081232 26 276 1.6 1.6 0.00 0.00 0.00 87 1014.8
20260904081120 26 276 0.0 3.2 0.00 0.00 0.00 87 1014.8
20260904081028 26 276 0.0 3.2 0.00 0.00 0.00 87 1014.8
20260904080939 26 276 0.0 3.2 0.00 0.00 0.00 87 1014.7
20260904080824 26 276 0.0 3.2 0.00 0.00 0.00 87 1014.8
20260904080730 26 276 1.6 3.2 0.00 0.00 0.00 87 1014.7
20260904080656 26 276 0.0 3.2 0.00 0.00 0.00 86 1014.8
20260904080522 26 276 0.0 3.2 0.00 0.00 0.00 86 1014.7
20260904080429 26 276 1.6 3.2 0.00 0.00 0.00 86 1014.7
20260904080321 26 276 1.6 3.2 0.00 0.00 0.00 86 1014.7
20260904080251 26 276 3.2 3.2 0.00 0.00 0.00 86 1014.7
20260904080045 26 282 3.2 3.2 0.00 0.00 0.00 86 1014.6
20260904075930 26 279 3.2 3.2 0.00 0.00 0.00 86 1014.7
20260904075835 26 96 1.6 3.2 0.00 0.00 0.00 86 1014.6
20260904075727 26 96 3.2 3.2 0.00 0.00 0.00 86 1014.7
20260904075635 26 96 3.2 3.2 0.00 0.00 0.00 86 1014.7
20260904075521 26 96 1.6 3.2 0.00 0.00 0.00 86 1014.7
20260904075427 26 96 1.6 3.2 0.00 0.00 0.00 86 1014.7
20260904075334 26 96 1.6 3.2 0.00 0.00 0.00 86 1014.7
20260904075241 26 96 3.2 3.2 0.00 0.00 0.00 85 1014.6
20260904075132 26 96 3.2 3.2 0.00 0.00 0.00 85 1014.6
20260904075020 26 96 1.6 3.2 0.00 0.00 0.00 85 1014.6
20260904074928 26 96 1.6 3.2 0.00 0.00 0.00 85 1014.7
20260904074855 26 96 0.0 3.2 0.00 0.00 0.00 85 1014.7
20260904074826 26 96 0.0 0.0 0.00 0.00 0.00 85 1014.6
20260904074523 26 96 0.0 0.0 0.00 0.00 0.00 85 1014.6
20260904074450 26 96 0.0 0.0 0.00 0.00 0.00 85 1014.6
20260904074335 26 96 0.0 0.0 0.00 0.00 0.00 85 1014.6
20260904074221 26 96 0.0 0.0 0.00 0.00 0.00 85 1014.6
20260904074128 26 96 0.0 0.0 0.00 0.00 0.00 85 1014.6
20260904074018 26 96 0.0 0.0 0.00 0.00 0.00 85 1014.6
20260904073926 26 96 0.0 1.6 0.00 0.00 0.00 85 1014.6
20260904073832 26 96 0.0 1.6 0.00 0.00 0.00 84 1014.7
20260904073720 26 96 0.0 1.6 0.00 0.00 0.00 84 1014.7
20260904073626 26 96 0.0 1.6 0.00 0.00 0.00 84 1014.7
20260904073534 26 96 0.0 1.6 0.00 0.00 0.00 84 1014.7
20260904073446 26 96 0.0 1.6 0.00 0.00 0.00 83 1014.7
20260904073331 26 96 0.0 1.6 0.00 0.00 0.00 83 1014.8
20260904073301 26 96 0.0 3.2 0.00 0.00 0.00 84 1014.8
20260904073034 26 96 0.0 3.2 0.00 0.00 0.00 84 1014.7
20260904072920 26 96 0.0 3.2 0.00 0.00 0.00 84 1014.7
20260904072831 26 96 0.0 4.8 0.00 0.00 0.00 84 1014.7
20260904072717 26 96 0.0 4.8 0.00 0.00 0.00 84 1014.7
20260904072645 26 96 0.0 4.8 0.00 0.00 0.00 84 1014.7
20260904072530 26 96 0.0 4.8 0.00 0.00 0.00 84 1014.7
20260904072456 26 96 1.6 4.8 0.00 0.00 0.00 84 1014.7
20260904072321 26 92 1.6 4.8 0.00 0.00 0.00 84 1014.7
20260904072233 26 93 1.6 4.8 0.00 0.00 0.00 84 1014.7
20260904072139 26 63 1.6 4.8 0.00 0.00 0.00 84 1014.7
20260904072025 26 109 1.6 4.8 0.00 0.00 0.00 84 1014.7
20260904071932 26 115 1.6 3.2 0.00 0.00 0.00 83 1014.7
20260904071818 26 155 0.0 3.2 0.00 0.00 0.00 83 1014.7
20260904071753 26 155 0.0 3.2 0.00 0.00 0.00 83 1014.7
20260904071547 26 155 0.0 3.2 0.00 0.00 0.00 83 1014.6
20260904071432 26 155 0.0 3.2 0.00 0.00 0.00 83 1014.6
20260904071319 26 155 0.0 3.2 0.00 0.00 0.00 84 1014.7
20260904071226 26 155 1.6 3.2 0.00 0.00 0.00 84 1014.7
20260904071152 26 155 1.6 3.2 0.00 0.00 0.00 84 1014.6
20260904071017 26 155 1.6 4.8 0.00 0.00 0.00 84 1014.7
20260904070929 26 155 0.0 4.8 0.00 0.00 0.00 84 1014.7
20260904070836 26 155 0.0 4.8 0.00 0.00 0.00 84 1014.7
20260904070723 26 155 0.0 4.8 0.00 0.00 0.00 84 1014.7
20260904070630 26 155 1.6 4.8 0.00 0.00 0.00 84 1014.6
20260904070517 26 155 1.6 4.8 0.00 0.00 0.00 84 1014.7
20260904070424 26 155 3.2 4.8 0.00 0.00 0.00 85 1014.7
20260904070333 26 155 3.2 4.8 0.00 0.00 0.00 85 1014.6
20260904070304 26 153 3.2 4.8 0.00 0.00 0.00 85 1014.6
20260904070039 26 142 3.2 4.8 0.00 0.00 0.00 85 1014.7
20260904065924 26 144 3.2 4.8 0.00 0.00 0.00 85 1014.6
20260904065831 26 141 3.2 4.8 0.00 0.00 0.00 85 1014.7
20260904065723 26 123 3.2 4.8 0.00 0.00 0.00 85 1014.7
20260904065631 26 142 3.2 4.8 0.00 0.00 0.00 85 1014.7
20260904065518 26 147 3.2 4.8 0.00 0.00 0.00 85 1014.8
20260904065426 26 144 3.2 4.8 0.00 0.00 0.00 85 1014.8
20260904065354 26 142 3.2 3.2 0.00 0.00 0.00 85 1014.7
20260904065223 26 129 3.2 3.2 0.00 0.00 0.00 85 1014.8
20260904065129 26 134 3.2 3.2 0.00 0.00 0.00 85 1014.8
20260904065037 26 123 1.6 3.2 0.00 0.00 0.00 85 1014.9
20260904064923 26 84 0.0 3.2 0.00 0.00 0.00 85 1014.8
20260904064851 26 84 1.6 3.2 0.00 0.00 0.00 85 1014.8
20260904064827 26 45 1.6 3.2 0.00 0.00 0.00 85 1014.8
20260904064518 26 45 3.2 3.2 0.00 0.00 0.00 85 1014.8
20260904064425 26 360 3.2 3.2 0.00 0.00 0.00 85 1014.8
20260904064331 26 360 1.6 3.2 0.00 0.00 0.00 85 1014.8
20260904064217 26 360 1.6 3.2 0.00 0.00 0.00 85 1014.8
20260904064125 26 360 1.6 3.2 0.00 0.00 0.00 85 1014.8
20260904064036 26 360 1.6 3.2 0.00 0.00 0.00 85 1014.8
20260904063922 26 360 1.6 3.2 0.00 0.00 0.00 85 1014.8
20260904063829 26 360 1.6 3.2 0.00 0.00 0.00 85 1014.8
20260904063736 26 360 1.6 3.2 0.00 0.00 0.00 85 1014.8
20260904063622 26 360 0.0 1.6 0.00 0.00 0.00 84 1014.7
20260904063529 26 360 0.0 1.6 0.00 0.00 0.00 84 1014.7
20260904063439 26 360 0.0 0.0 0.00 0.00 0.00 84 1014.8
20260904063324 26 360 0.0 0.0 0.00 0.00 0.00 83 1014.8
20260904063254 26 360 0.0 0.0 0.00 0.00 0.00 83 1014.8
20260904063028 26 360 0.0 0.0 0.00 0.00 0.00 83 1014.8
20260904062955 26 360 0.0 0.0 0.00 0.00 0.00 83 1014.8
20260904062825 26 360 0.0 0.0 0.00 0.00 0.00 83 1014.8
20260904062732 26 360 0.0 0.0 0.00 0.00 0.00 83 1014.9
20260904062620 26 360 0.0 0.0 0.00 0.00 0.00 84 1014.8
20260904062528 26 360 0.0 0.0 0.00 0.00 0.00 84 1014.8
20260904062432 26 360 0.0 0.0 0.00 0.00 0.00 84 1014.9
20260904062323 26 360 0.0 0.0 0.00 0.00 0.00 84 1014.9
20260904062229 26 360 0.0 0.0 0.00 0.00 0.00 84 1014.8
20260904062118 26 360 0.0 0.0 0.00 0.00 0.00 83 1014.9
20260904062025 26 360 0.0 0.0 0.00 0.00 0.00 83 1014.9
20260904061951 26 360 0.0 0.0 0.00 0.00 0.00 83 1014.9
20260904061856 26 360 0.0 0.0 0.00 0.00 0.00 83 1014.9
20260904061810 26 360 0.0 0.0 0.00 0.00 0.00 83 1014.9
20260904061523 26 360 0.0 0.0 0.00 0.00 0.00 83 1014.9
20260904061431 26 360 0.0 1.6 0.00 0.00 0.00 84 1015.0
20260904061317 26 360 0.0 1.6 0.00 0.00 0.00 84 1014.9
20260904061223 26 360 0.0 3.2 0.00 0.00 0.00 83 1014.9
20260904061135 26 360 0.0 3.2 0.00 0.00 0.00 83 1015.0
20260904061021 26 360 0.0 3.2 0.00 0.00 0.00 83 1014.9
20260904060949 26 360 0.0 3.2 0.00 0.00 0.00 83 1015.0
20260904060835 26 360 0.0 3.2 0.00 0.00 0.00 83 1014.9
20260904060723 26 360 0.0 3.2 0.00 0.00 0.00 83 1014.9
20260904060650 26 360 0.0 3.2 0.00 0.00 0.00 83 1014.9
20260904060555 26 360 1.6 3.2 0.00 0.00 0.00 83 1014.9
20260904060444 26 360 1.6 3.2 0.00 0.00 0.00 82 1015.0
20260904060301 26 360 3.2 3.2 0.00 0.00 0.00 83 1014.9
20260904060034 26 360 1.6 3.2 0.00 0.00 0.00 83 1014.9
20260904055921 26 360 1.6 3.2 0.00 0.00 0.00 83 1015.0
20260904055832 26 360 0.0 3.2 0.00 0.00 0.00 83 1014.9
20260904055719 26 360 0.0 3.2 0.00 0.00 0.00 84 1014.9
20260904055628 26 360 0.0 3.2 0.00 0.00 0.00 84 1014.9
20260904055534 26 360 0.0 3.2 0.00 0.00 0.00 84 1015.0
20260904055421 26 360 0.0 3.2 0.00 0.00 0.00 84 1015.0
20260904055331 26 360 0.0 3.2 0.00 0.00 0.00 84 1015.0
20260904055217 26 360 0.0 3.2 0.00 0.00 0.00 84 1015.0
20260904055124 26 360 1.6 3.2 0.00 0.00 0.00 84 1015.0
20260904055032 26 360 1.6 3.2 0.00 0.00 0.00 84 1015.0
20260904054939 26 360 3.2 3.2 0.00 0.00 0.00 84 1014.9
20260904054825 26 360 1.6 3.2 0.00 0.00 0.00 84 1015.0
20260904054759 26 360 1.6 3.2 0.00 0.00 0.00 84 1015.0
20260904054534 26 360 0.0 3.2 0.00 0.00 0.00 84 1014.9
20260904054420 26 360 0.0 0.0 0.00 0.00 0.00 84 1014.9
20260904054327 26 360 0.0 1.6 0.00 0.00 0.00 84 1015.0
20260904054217 26 360 0.0 1.6 0.00 0.00 0.00 84 1014.9
20260904054124 26 360 0.0 1.6 0.00 0.00 0.00 84 1015.0
20260904054052 26 360 0.0 3.2 0.00 0.00 0.00 84 1015.0
20260904053919 26 360 0.0 3.2 0.00 0.00 0.00 84 1014.9
20260904053827 26 360 0.0 3.2 0.00 0.00 0.00 84 1015.0
20260904053754 26 360 0.0 3.2 0.00 0.00 0.00 84 1015.0
20260904053618 26 360 0.0 3.2 0.00 0.00 0.00 84 1015.0
20260904053546 26 360 0.0 3.2 0.00 0.00 0.00 83 1015.0
20260904053433 26 360 1.6 3.2 0.00 0.00 0.00 83 1015.0
20260904053340 26 360 1.6 3.2 0.00 0.00 0.00 83 1015.1
20260904053310 26 360 1.6 3.2 0.00 0.00 0.00 83 1015.1
20260904053022 26 360 1.6 3.2 0.00 0.00 0.00 83 1015.1
20260904052929 26 360 0.0 3.2 0.00 0.00 0.00 83 1015.1
20260904052820 26 360 0.0 3.2 0.00 0.00 0.00 83 1015.0
20260904052746 26 360 0.0 1.6 0.00 0.00 0.00 83 1015.0
20260904052632 26 360 0.0 0.0 0.00 0.00 0.00 82 1015.1
20260904052519 26 360 0.0 1.6 0.00 0.00 0.00 82 1015.1
20260904052427 26 360 0.0 1.6 0.00 0.00 0.00 82 1015.1
20260904052318 26 360 0.0 1.6 0.00 0.00 0.00 82 1015.1
20260904052225 27 360 0.0 1.6 0.00 0.00 0.00 82 1015.1
20260904052152 27 360 0.0 3.2 0.00 0.00 0.00 82 1015.1
20260904052036 27 360 0.0 3.2 0.00 0.00 0.00 82 1015.1
20260904051943 27 360 0.0 3.2 0.00 0.00 0.00 81 1015.1
20260904051850 27 360 0.0 3.2 0.00 0.00 0.00 81 1015.1
20260904051804 27 360 0.0 3.2 0.00 0.00 0.00 81 1015.1
20260904051537 27 360 0.0 3.2 0.00 0.00 0.00 81 1015.0
20260904051442 27 360 1.6 3.2 0.00 0.00 0.00 82 1015.0
20260904051328 27 360 1.6 3.2 0.00 0.00 0.00 82 1015.0
20260904051236 27 360 1.6 3.2 0.00 0.00 0.00 82 1015.0
20260904051143 27 360 1.6 3.2 0.00 0.00 0.00 81 1015.0
20260904051028 27 360 1.6 3.2 0.00 0.00 0.00 81 1015.1
20260904050919 27 360 1.6 3.2 0.00 0.00 0.00 82 1015.0
20260904050826 27 360 1.6 3.2 0.00 0.00 0.00 81 1015.1
20260904050733 27 360 1.6 3.2 0.00 0.00 0.00 80 1015.1
20260904050620 27 360 1.6 3.2 0.00 0.00 0.00 80 1015.2
20260904050547 27 360 1.6 3.2 0.00 0.00 0.00 81 1015.1
20260904050430 27 360 0.0 3.2 0.00 0.00 0.00 81 1015.1
20260904050342 27 360 1.6 3.2 0.00 0.00 0.00 81 1015.2
20260904050251 27 360 1.6 3.2 0.00 0.00 0.00 82 1015.1
20260904050024 27 360 1.6 3.2 0.00 0.00 0.00 82 1015.2
20260904045933 27 360 1.6 3.2 0.00 0.00 0.00 82 1015.2
20260904045819 27 360 0.0 1.6 0.00 0.00 0.00 82 1015.2
20260904045728 27 360 0.0 1.6 0.00 0.00 0.00 81 1015.2
20260904045636 27 360 0.0 0.0 0.00 0.00 0.00 81 1015.2
20260904045522 27 360 0.0 0.0 0.00 0.00 0.00 81 1015.2
20260904045430 27 360 0.0 0.0 0.00 0.00 0.00 81 1015.2
20260904045357 27 360 0.0 1.6 0.00 0.00 0.00 80 1015.2
20260904045225 27 360 0.0 1.6 0.00 0.00 0.00 79 1015.1
20260904045136 27 360 0.0 1.6 0.00 0.00 0.00 78 1015.1
20260904045041 27 360 0.0 1.6 0.00 0.00 0.00 79 1015.1
20260904044926 27 360 0.0 1.6 0.00 0.00 0.00 79 1015.2
20260904044804 27 360 0.0 1.6 0.00 0.00 0.00 79 1015.2
20260904044520 27 360 0.0 3.2 0.00 0.00 0.00 78 1015.2
20260904044427 27 360 1.6 3.2 0.00 0.00 0.00 78 1015.2
20260904044333 27 360 1.6 3.2 0.00 0.00 0.00 78 1015.2
20260904044218 27 360 1.6 3.2 0.00 0.00 0.00 78 1015.1
20260904044124 27 360 1.6 3.2 0.00 0.00 0.00 78 1015.1
20260904044036 27 360 1.6 3.2 0.00 0.00 0.00 78 1015.2
20260904043922 27 360 0.0 3.2 0.00 0.00 0.00 78 1015.2
20260904043828 27 360 0.0 3.2 0.00 0.00 0.00 78 1015.2
20260904043756 27 360 1.6 3.2 0.00 0.00 0.00 78 1015.2
20260904043622 27 360 1.6 3.2 0.00 0.00 0.00 78 1015.1
20260904043526 27 360 1.6 3.2 0.00 0.00 0.00 78 1015.1
20260904043435 27 360 0.0 3.2 0.00 0.00 0.00 78 1015.1
20260904043323 27 360 0.0 3.2 0.00 0.00 0.00 78 1015.1
20260904043253 27 360 0.0 3.2 0.00 0.00 0.00 78 1015.1
20260904043046 27 360 0.0 3.2 0.00 0.00 0.00 77 1015.2
20260904042952 27 360 0.0 3.2 0.00 0.00 0.00 77 1015.2
20260904042824 27 360 0.0 3.2 0.00 0.00 0.00 77 1015.2
20260904042729 27 360 0.0 3.2 0.00 0.00 0.00 77 1015.1
20260904042635 27 360 1.6 3.2 0.00 0.00 0.00 77 1015.2
20260904042523 27 360 1.6 3.2 0.00 0.00 0.00 77 1015.3
20260904042452 27 360 1.6 3.2 0.00 0.00 0.00 77 1015.2
20260904042317 27 360 1.6 3.2 0.00 0.00 0.00 77 1015.3
20260904042228 27 360 1.6 3.2 0.00 0.00 0.00 77 1015.2
20260904042156 27 360 1.6 3.2 0.00 0.00 0.00 76 1015.2
20260904042020 27 13 1.6 3.2 0.00 0.00 0.00 76 1015.3
20260904041927 27 13 1.6 3.2 0.00 0.00 0.00 76 1015.3
20260904041835 27 13 1.6 3.2 0.00 0.00 0.00 76 1015.3
20260904041804 27 13 1.6 3.2 0.00 0.00 0.00 76 1015.3
20260904041522 28 13 0.0 1.6 0.00 0.00 0.00 76 1015.2
20260904041429 28 13 0.0 1.6 0.00 0.00 0.00 76 1015.2
20260904041336 28 13 0.0 1.6 0.00 0.00 0.00 76 1015.2
20260904041243 28 13 0.0 1.6 0.00 0.00 0.00 76 1015.2
20260904041129 28 13 0.0 1.6 0.00 0.00 0.00 76 1015.2
20260904041019 28 13 1.6 1.6 0.00 0.00 0.00 76 1015.2
20260904040925 28 13 0.0 1.6 0.00 0.00 0.00 76 1015.2
20260904040832 28 13 0.0 1.6 0.00 0.00 0.00 77 1015.3
20260904040719 28 13 0.0 1.6 0.00 0.00 0.00 76 1015.3
20260904040625 28 13 0.0 1.6 0.00 0.00 0.00 76 1015.3
20260904040531 28 13 0.0 1.6 0.00 0.00 0.00 76 1015.3
20260904040421 28 13 0.0 1.6 0.00 0.00 0.00 76 1015.2
20260904040348 28 13 0.0 1.6 0.00 0.00 0.00 76 1015.2
20260904040318 28 13 0.0 1.6 0.00 0.00 0.00 75 1015.2
20260904040032 28 13 0.0 1.6 0.00 0.00 0.00 76 1015.3
20260904035958 28 13 0.0 1.6 0.00 0.00 0.00 76 1015.3
20260904035823 28 13 0.0 1.6 0.00 0.00 0.00 76 1015.3
20260904035754 28 13 0.0 3.2 0.00 0.00 0.00 76 1015.3
20260904035639 28 13 1.6 3.2 0.00 0.00 0.00 76 1015.3
20260904035543 28 13 0.0 3.2 0.00 0.00 0.00 76 1015.3
20260904035428 28 13 0.0 3.2 0.00 0.00 0.00 76 1015.3
20260904035335 28 16 0.0 3.2 0.00 0.00 0.00 76 1015.3
20260904035222 28 27 0.0 3.2 0.00 0.00 0.00 76 1015.3
20260904035128 28 125 0.0 3.2 0.00 0.00 0.00 76 1015.3
20260904035018 28 125 0.0 3.2 0.00 0.00 0.00 75 1015.3
20260904034925 28 125 0.0 3.2 0.00 0.00 0.00 75 1015.4
20260904034833 28 125 0.0 1.6 0.00 0.00 0.00 74 1015.4
20260904034802 28 125 0.0 1.6 0.00 0.00 0.00 74 1015.4
20260904034519 28 125 0.0 1.6 0.00 0.00 0.00 74 1015.3
20260904034426 29 125 0.0 1.6 0.00 0.00 0.00 74 1015.4
20260904034333 29 125 0.0 1.6 0.00 0.00 0.00 74 1015.4
20260904034221 29 125 0.0 1.6 0.00 0.00 0.00 73 1015.4
20260904034129 29 125 0.0 1.6 0.00 0.00 0.00 73 1015.5
20260904034019 29 125 0.0 1.6 0.00 0.00 0.00 72 1015.5
20260904033925 29 125 0.0 1.6 0.00 0.00 0.00 72 1015.5
20260904033833 29 125 0.0 1.6 0.00 0.00 0.00 72 1015.5
20260904033721 29 125 0.0 1.6 0.00 0.00 0.00 71 1015.4
20260904033648 29 125 0.0 1.6 0.00 0.00 0.00 71 1015.5
20260904033534 29 125 0.0 0.0 0.00 0.00 0.00 72 1015.5
20260904033442 29 125 0.0 0.0 0.00 0.00 0.00 72 1015.5
20260904033353 29 125 0.0 0.0 0.00 0.00 0.00 73 1015.4
20260904033303 29 125 0.0 0.0 0.00 0.00 0.00 73 1015.4
20260904033035 29 125 0.0 0.0 0.00 0.00 0.00 72 1015.5
20260904032922 29 125 0.0 0.0 0.00 0.00 0.00 72 1015.5
20260904032848 29 125 0.0 0.0 0.00 0.00 0.00 72 1015.5
20260904032717 29 125 0.0 3.2 0.00 0.00 0.00 72 1015.5
20260904032644 29 125 0.0 3.2 0.00 0.00 0.00 72 1015.6
20260904032531 29 125 0.0 3.2 0.00 0.00 0.00 72 1015.6
20260904032438 29 125 0.0 3.2 0.00 0.00 0.00 71 1015.5
20260904032325 29 125 0.0 3.2 0.00 0.00 0.00 70 1015.5
20260904032232 30 125 0.0 3.2 0.00 0.00 0.00 70 1015.5
20260904032123 30 126 0.0 3.2 0.00 0.00 0.00 70 1015.5
20260904032029 30 125 0.0 3.2 0.00 0.00 0.00 70 1015.5
20260904031917 30 125 1.6 3.2 0.00 0.00 0.00 70 1015.5
20260904031824 30 125 1.6 3.2 0.00 0.00 0.00 70 1015.6
20260904031753 29 125 1.6 3.2 0.00 0.00 0.00 70 1015.6
20260904031531 30 125 1.6 3.2 0.00 0.00 0.00 70 1015.6
20260904031417 30 125 1.6 3.2 0.00 0.00 0.00 70 1015.4
20260904031345 30 125 1.6 3.2 0.00 0.00 0.00 70 1015.5
20260904031230 30 125 1.6 3.2 0.00 0.00 0.00 71 1015.6
20260904031117 30 125 1.6 3.2 0.00 0.00 0.00 70 1015.5
20260904031044 30 125 1.6 3.2 0.00 0.00 0.00 71 1015.5
20260904030932 30 125 1.6 3.2 0.00 0.00 0.00 70 1015.6
20260904030821 30 125 1.6 3.2 0.00 0.00 0.00 70 1015.6
20260904030749 30 125 1.6 3.2 0.00 0.00 0.00 70 1015.5
20260904030655 30 125 1.6 4.8 0.00 0.00 0.00 70 1015.6
20260904030521 30 125 1.6 4.8 0.00 0.00 0.00 71 1015.6
20260904030428 30 125 1.6 4.8 0.00 0.00 0.00 71 1015.6
20260904030334 30 125 1.6 4.8 0.00 0.00 0.00 70 1015.6
20260904030308 30 125 1.6 4.8 0.00 0.00 0.00 71 1015.6
20260904030020 30 103 3.2 4.8 0.00 0.00 0.00 70 1015.7
20260904025927 30 120 3.2 4.8 0.00 0.00 0.00 70 1015.6
20260904025834 30 120 3.2 4.8 0.00 0.00 0.00 71 1015.5
20260904025724 30 114 3.2 4.8 0.00 0.00 0.00 71 1015.6
20260904025631 30 114 3.2 4.8 0.00 0.00 0.00 70 1015.6
20260904025536 30 114 1.6 4.8 0.00 0.00 0.00 71 1015.5
20260904025422 30 111 1.6 4.8 0.00 0.00 0.00 70 1015.6
20260904025329 30 107 1.6 4.8 0.00 0.00 0.00 71 1015.5
20260904025218 30 97 3.2 4.8 0.00 0.00 0.00 71 1015.5
20260904025148 30 109 3.2 4.8 0.00 0.00 0.00 70 1015.5
20260904025033 30 94 3.2 4.8 0.00 0.00 0.00 70 1015.5
20260904024918 30 110 1.6 4.8 0.00 0.00 0.00 71 1015.6
20260904024826 30 112 1.6 4.8 0.00 0.00 0.00 70 1015.5
20260904024757 30 90 1.6 4.8 0.00 0.00 0.00 70 1015.5
20260904024533 30 92 1.6 4.8 0.00 0.00 0.00 71 1015.6
20260904024420 30 102 3.2 4.8 0.00 0.00 0.00 71 1015.5
20260904024327 30 94 3.2 4.8 0.00 0.00 0.00 71 1015.6
20260904024253 30 82 3.2 4.8 0.00 0.00 0.00 71 1015.5
20260904024118 30 120 3.2 4.8 0.00 0.00 0.00 71 1015.6
20260904024025 30 113 1.6 3.2 0.00 0.00 0.00 71 1015.5
20260904023934 30 119 1.6 3.2 0.00 0.00 0.00 71 1015.5
20260904023820 30 119 1.6 3.2 0.00 0.00 0.00 71 1015.5
20260904023725 30 103 1.6 3.2 0.00 0.00 0.00 70 1015.6
20260904023632 30 103 1.6 3.2 0.00 0.00 0.00 70 1015.6
20260904023540 30 98 0.0 3.2 0.00 0.00 0.00 69 1015.5
20260904023445 30 98 0.0 4.8 0.00 0.00 0.00 70 1015.6
20260904023412 30 98 1.6 4.8 0.00 0.00 0.00 70 1015.5
20260904023325 30 98 1.6 4.8 0.00 0.00 0.00 70 1015.5
20260904023036 30 105 1.6 4.8 0.00 0.00 0.00 70 1015.5
20260904022922 30 119 1.6 6.4 0.00 0.00 0.00 70 1015.5
20260904022829 30 96 1.6 6.4 0.00 0.00 0.00 70 1015.5
20260904022719 30 78 3.2 6.4 0.00 0.00 0.00 69 1015.5
20260904022627 30 93 3.2 6.4 0.00 0.00 0.00 69 1015.5
20260904022534 30 111 3.2 6.4 0.00 0.00 0.00 69 1015.5
20260904022420 31 101 3.2 6.4 0.00 0.00 0.00 69 1015.5
20260904022327 31 101 3.2 6.4 0.00 0.00 0.00 69 1015.5
20260904022235 31 113 4.8 6.4 0.00 0.00 0.00 69 1015.4
20260904022127 31 103 3.2 6.4 0.00 0.00 0.00 69 1015.5
20260904022034 31 103 3.2 6.4 0.00 0.00 0.00 69 1015.5
20260904021939 31 102 3.2 6.4 0.00 0.00 0.00 69 1015.4
20260904021824 31 107 3.2 6.4 0.00 0.00 0.00 69 1015.4
20260904021756 31 106 3.2 6.4 0.00 0.00 0.00 68 1015.4
20260904021552 31 105 3.2 6.4 0.00 0.00 0.00 68 1015.3
20260904021419 31 92 4.8 6.4 0.00 0.00 0.00 67 1015.3
20260904021326 31 111 4.8 6.4 0.00 0.00 0.00 68 1015.3
20260904021234 31 115 4.8 6.4 0.00 0.00 0.00 67 1015.3
20260904021140 31 128 4.8 6.4 0.00 0.00 0.00 68 1015.3
20260904021025 31 144 4.8 6.4 0.00 0.00 0.00 68 1015.2
20260904020936 31 152 3.2 6.4 0.00 0.00 0.00 68 1015.2
20260904020823 31 157 3.2 6.4 0.00 0.00 0.00 68 1015.3
20260904020731 31 153 3.2 6.4 0.00 0.00 0.00 68 1015.3
20260904020617 31 126 3.2 8.0 0.00 0.00 0.00 68 1015.3
20260904020525 31 132 3.2 8.0 0.00 0.00 0.00 68 1015.3
20260904020432 31 146 3.2 8.0 0.00 0.00 0.00 68 1015.3
20260904020344 31 146 3.2 8.0 0.00 0.00 0.00 68 1015.3
20260904020313 31 139 3.2 4.8 0.00 0.00 0.00 68 1015.3
20260904020046 31 137 3.2 4.8 0.00 0.00 0.00 68 1015.3
20260904015930 31 153 3.2 4.8 0.00 0.00 0.00 68 1015.3
20260904015817 31 115 3.2 4.8 0.00 0.00 0.00 68 1015.3
20260904015729 31 122 3.2 4.8 0.00 0.00 0.00 68 1015.2
20260904015657 31 115 1.6 4.8 0.00 0.00 0.00 67 1015.2
20260904015543 31 146 1.6 4.8 0.00 0.00 0.00 68 1015.3
20260904015429 31 146 3.2 4.8 0.00 0.00 0.00 68 1015.2
20260904015334 31 146 3.2 4.8 0.00 0.00 0.00 67 1015.1
20260904015223 31 146 1.6 4.8 0.00 0.00 0.00 67 1015.2
20260904015128 31 146 1.6 4.8 0.00 0.00 0.00 68 1015.2
20260904015019 31 146 3.2 4.8 0.00 0.00 0.00 68 1015.2
20260904014927 31 157 3.2 4.8 0.00 0.00 0.00 68 1015.2
20260904014833 31 153 3.2 4.8 0.00 0.00 0.00 68 1015.1
20260904014804 31 175 3.2 4.8 0.00 0.00 0.00 68 1015.1
20260904014520 31 134 1.6 4.8 0.00 0.00 0.00 68 1015.1
20260904014427 31 192 1.6 8.0 0.00 0.00 0.00 68 1015.2
20260904014333 31 196 3.2 8.0 0.00 0.00 0.00 68 1015.1
20260904014220 31 217 1.6 8.0 0.00 0.00 0.00 68 1015.1
20260904014127 31 230 1.6 8.0 0.00 0.00 0.00 68 1015.1
20260904014019 31 189 3.2 8.0 0.00 0.00 0.00 68 1015.1
20260904013926 31 192 3.2 8.0 0.00 0.00 0.00 68 1015.0
20260904013832 31 198 1.6 8.0 0.00 0.00 0.00 67 1015.1
20260904013718 31 163 3.2 8.0 0.00 0.00 0.00 67 1015.1
20260904013625 31 163 3.2 8.0 0.00 0.00 0.00 68 1015.0
20260904013530 31 149 4.8 8.0 0.00 0.00 0.00 68 1015.1
20260904013443 31 142 3.2 6.4 0.00 0.00 0.00 68 1015.1
20260904013329 31 123 3.2 6.4 0.00 0.00 0.00 67 1015.0
20260904013259 31 130 1.6 6.4 0.00 0.00 0.00 67 1015.0
20260904013032 31 157 3.2 6.4 0.00 0.00 0.00 67 1015.0
20260904012918 31 219 3.2 6.4 0.00 0.00 0.00 67 1015.0
20260904012829 31 196 3.2 6.4 0.00 0.00 0.00 67 1015.0
20260904012737 31 151 3.2 6.4 0.00 0.00 0.00 67 1015.0
20260904012624 31 116 4.8 6.4 0.00 0.00 0.00 67 1014.9
20260904012532 31 144 4.8 6.4 0.00 0.00 0.00 67 1014.9
20260904012418 31 143 3.2 8.0 0.00 0.00 0.00 67 1014.9
20260904012330 31 180 3.2 8.0 0.00 0.00 0.00 67 1014.9
20260904012217 31 173 4.8 11.3 0.00 0.00 0.00 67 1014.9
20260904012144 31 123 4.8 11.3 0.00 0.00 0.00 67 1014.9
20260904012030 31 134 3.2 11.3 0.00 0.00 0.00 67 1014.9
20260904011936 31 134 3.2 11.3 0.00 0.00 0.00 67 1014.9
20260904011842 31 123 4.8 11.3 0.00 0.00 0.00 67 1015.0
20260904011755 31 129 4.8 11.3 0.00 0.00 0.00 67 1015.0
20260904011548 31 141 6.4 11.3 0.00 0.00 0.00 67 1014.8
20260904011434 31 115 6.4 11.3 0.00 0.00 0.00 67 1014.9
20260904011321 31 142 4.8 11.3 0.00 0.00 0.00 67 1014.9
20260904011228 31 185 4.8 8.0 0.00 0.00 0.00 67 1015.0
20260904011119 31 161 4.8 8.0 0.00 0.00 0.00 67 1014.9
20260904011025 31 176 4.8 8.0 0.00 0.00 0.00 67 1014.9
20260904010931 31 165 3.2 8.0 0.00 0.00 0.00 68 1014.8
20260904010838 31 148 3.2 8.0 0.00 0.00 0.00 67 1015.0
20260904010723 31 133 3.2 8.0 0.00 0.00 0.00 67 1014.8
20260904010632 31 111 3.2 8.0 0.00 0.00 0.00 67 1014.8
20260904010523 31 126 3.2 8.0 0.00 0.00 0.00 67 1014.7
20260904010430 31 78 3.2 8.0 0.00 0.00 0.00 67 1014.8
20260904010337 31 120 3.2 8.0 0.00 0.00 0.00 67 1014.8
20260904010309 31 115 3.2 8.0 0.00 0.00 0.00 67 1014.8
20260904010024 31 58 3.2 8.0 0.00 0.00 0.00 68 1014.7
20260904005935 31 89 3.2 8.0 0.00 0.00 0.00 67 1014.6
20260904005822 31 149 4.8 8.0 0.00 0.00 0.00 67 1014.6
20260904005730 31 142 4.8 8.0 0.00 0.00 0.00 67 1014.6
20260904005617 31 140 4.8 8.0 0.00 0.00 0.00 67 1014.6
20260904005523 31 138 4.8 6.4 0.00 0.00 0.00 67 1014.6
20260904005436 31 134 4.8 6.4 0.00 0.00 0.00 67 1014.5
20260904005324 31 126 4.8 6.4 0.00 0.00 0.00 67 1014.6
20260904005232 31 130 1.6 4.8 0.00 0.00 0.00 66 1014.6
20260904005118 31 80 0.0 3.2 0.00 0.00 0.00 66 1014.6
20260904005027 31 24 0.0 3.2 0.00 0.00 0.00 66 1014.5
20260904004917 31 24 0.0 4.8 0.00 0.00 0.00 66 1014.5
20260904004824 31 24 0.0 4.8 0.00 0.00 0.00 66 1014.4
20260904004756 31 24 0.0 4.8 0.00 0.00 0.00 66 1014.4
20260904004528 32 24 1.6 4.8 0.00 0.00 0.00 65 1014.4
20260904004456 32 24 3.2 4.8 0.00 0.00 0.00 65 1014.5
20260904004324 32 24 3.2 4.8 0.00 0.00 0.00 64 1014.5
20260904004232 32 24 3.2 4.8 0.00 0.00 0.00 64 1014.5
20260904004120 32 5 3.2 4.8 0.00 0.00 0.00 63 1014.4
20260904004027 32 5 3.2 3.2 0.00 0.00 0.00 63 1014.5
20260904003933 32 5 1.6 3.2 0.00 0.00 0.00 64 1014.4
20260904003821 32 5 1.6 3.2 0.00 0.00 0.00 65 1014.5
20260904003752 32 5 1.6 1.6 0.00 0.00 0.00 64 1014.4
20260904003618 32 5 1.6 1.6 0.00 0.00 0.00 64 1014.4
20260904003525 32 5 0.0 3.2 0.00 0.00 0.00 64 1014.4
20260904003433 32 5 0.0 3.2 0.00 0.00 0.00 63 1014.4
20260904003341 32 5 0.0 3.2 0.00 0.00 0.00 63 1014.4
20260904003255 32 5 0.0 3.2 0.00 0.00 0.00 63 1014.4
20260904003026 32 5 0.0 3.2 0.00 0.00 0.00 63 1014.3
20260904002955 32 5 0.0 3.2 0.00 0.00 0.00 63 1014.4
20260904002822 32 5 1.6 3.2 0.00 0.00 0.00 64 1014.4
20260904002728 32 5 1.6 3.2 0.00 0.00 0.00 64 1014.4
20260904002634 32 5 1.6 1.6 0.00 0.00 0.00 64 1014.3
20260904002525 32 5 0.0 3.2 0.00 0.00 0.00 64 1014.4
20260904002452 32 5 0.0 3.2 0.00 0.00 0.00 63 1014.3
20260904002318 32 5 0.0 4.8 0.00 0.00 0.00 61 1014.3
20260904002226 33 5 0.0 4.8 0.00 0.00 0.00 62 1014.3
20260904002132 33 5 0.0 4.8 0.00 0.00 0.00 62 1014.2
20260904002019 33 5 0.0 4.8 0.00 0.00 0.00 62 1014.2
20260904001930 33 5 1.6 4.8 0.00 0.00 0.00 62 1014.2
20260904001837 33 5 1.6 4.8 0.00 0.00 0.00 62 1014.1
20260904001808 33 5 3.2 4.8 0.00 0.00 0.00 59 1014.1
20260904001520 33 5 3.2 4.8 0.00 0.00 0.00 60 1014.2
20260904001430 33 5 3.2 4.8 0.00 0.00 0.00 61 1014.1
20260904001336 33 19 3.2 4.8 0.00 0.00 0.00 61 1014.2
20260904001223 33 36 1.6 3.2 0.00 0.00 0.00 60 1014.2
20260904001130 33 36 1.6 3.2 0.00 0.00 0.00 60 1014.3
20260904001057 33 36 1.6 3.2 0.00 0.00 0.00 59 1014.3
20260904000924 33 36 1.6 4.8 0.00 0.00 0.00 59 1014.3
20260904000836 33 36 1.6 4.8 0.00 0.00 0.00 59 1014.3
20260904000724 33 36 1.6 4.8 0.00 0.00 0.00 58 1014.2
20260904000631 33 36 3.2 4.8 0.00 0.00 0.00 58 1014.2
20260904000538 33 36 3.2 4.8 0.00 0.00 0.00 57 1014.2
20260904000422 33 36 1.6 4.8 0.00 0.00 0.00 58 1014.5
20260904000329 33 36 3.2 6.4 0.00 0.00 0.00 58 1014.0
20260904000303 33 36 3.2 6.4 0.00 0.00 0.00 57 1014.0
20260904000036 33 43 3.2 6.4 0.00 0.00 0.00 57 1014.1
20260903235923 33 43 3.2 6.4 0.00 0.00 0.00 57 1014.1
20260903235831 33 43 3.2 6.4 0.00 0.00 0.00 57 1014.1
20260903235742 33 41 1.6 6.4 0.00 0.00 0.00 57 1014.1
20260903235627 33 79 1.6 6.4 0.00 0.00 0.00 57 1014.1
20260903235533 33 100 3.2 6.4 0.00 0.00 0.00 58 1014.1
20260903235421 34 87 3.2 6.4 0.00 0.00 0.00 57 1014.1
20260903235327 34 134 3.2 4.8 0.00 0.00 0.00 56 1014.1
20260903235235 34 127 1.6 4.8 0.00 0.00 0.00 56 1014.1
20260903235125 34 128 1.6 4.8 0.00 0.00 0.00 57 1014.1
20260903235032 34 125 3.2 4.8 0.00 0.00 0.00 56 1014.1
20260903234920 34 111 1.6 4.8 0.00 0.00 0.00 56 1014.1
20260903234827 34 67 1.6 4.8 0.00 0.00 0.00 55 1014.1
20260903234802 34 69 1.6 4.8 0.00 0.00 0.00 55 1014.1
20260903234535 34 84 1.6 4.8 0.00 0.00 0.00 55 1014.0
20260903234420 34 115 1.6 3.2 0.00 0.00 0.00 55 1014.0
20260903234328 34 59 1.6 3.2 0.00 0.00 0.00 55 1014.0
20260903234235 34 58 1.6 3.2 0.00 0.00 0.00 54 1014.0
20260903234142 35 355 1.6 3.2 0.00 0.00 0.00 55 1014.0
20260903234032 35 355 0.0 3.2 0.00 0.00 0.00 54 1013.9
20260903233938 35 286 0.0 3.2 0.00 0.00 0.00 54 1014.0
20260903233824 35 286 0.0 3.2 0.00 0.00 0.00 54 1014.0
20260903233729 35 286 0.0 3.2 0.00 0.00 0.00 54 1014.0
20260903233617 35 286 0.0 3.2 0.00 0.00 0.00 54 1014.0
20260903233525 35 286 1.6 3.2 0.00 0.00 0.00 55 1014.0
20260903233437 35 286 1.6 3.2 0.00 0.00 0.00 55 1014.0
20260903233405 35 286 1.6 3.2 0.00 0.00 0.00 55 1014.0
20260903233253 35 286 1.6 4.8 0.00 0.00 0.00 54 1014.0
20260903233026 35 270 1.6 4.8 0.00 0.00 0.00 54 1014.0
20260903232932 35 270 1.6 4.8 0.00 0.00 0.00 54 1013.9
20260903232838 35 270 1.6 6.4 0.00 0.00 0.00 54 1014.0
20260903232729 35 270 0.0 6.4 0.00 0.00 0.00 55 1014.0
20260903232635 35 270 1.6 6.4 0.00 0.00 0.00 55 1014.1
20260903232521 35 270 1.6 6.4 0.00 0.00 0.00 55 1014.0
20260903232449 35 270 3.2 6.4 0.00 0.00 0.00 55 1014.0
20260903232335 35 269 3.2 6.4 0.00 0.00 0.00 55 1014.0
20260903232241 35 279 3.2 6.4 0.00 0.00 0.00 56 1014.1
20260903232131 35 281 3.2 6.4 0.00 0.00 0.00 55 1014.0
20260903232018 35 294 3.2 6.4 0.00 0.00 0.00 51 1014.0
20260903231925 35 188 4.8 6.4 0.00 0.00 0.00 50 1014.0
20260903231831 35 224 3.2 6.4 0.00 0.00 0.00 51 1014.0
20260903231802 35 215 3.2 6.4 0.00 0.00 0.00 51 1014.0
20260903231520 35 217 1.6 3.2 0.00 0.00 0.00 50 1014.0
20260903231426 35 216 1.6 3.2 0.00 0.00 0.00 50 1014.1
20260903231334 35 179 1.6 3.2 0.00 0.00 0.00 51 1014.0
20260903231221 35 36 1.6 3.2 0.00 0.00 0.00 50 1014.1
20260903231127 35 36 1.6 3.2 0.00 0.00 0.00 50 1014.0
20260903231019 35 59 0.0 3.2 0.00 0.00 0.00 50 1014.0
20260903230945 35 121 0.0 4.8 0.00 0.00 0.00 50 1014.0
20260903230831 35 121 0.0 4.8 0.00 0.00 0.00 50 1014.0
20260903230738 35 121 0.0 4.8 0.00 0.00 0.00 49 1013.9
20260903230624 35 121 0.0 4.8 0.00 0.00 0.00 49 1014.0